Wetterdaten: Mittwoch, 21.07.2010
Datum Zeit Temp. Innen Temp. Aussen UV X Diff Temp. Feuchte Inne Feuchte Auss Sonnenschein Luftdruck Regen ab 0,1 Wind Sonnenschein Windben
21.07.2010 00:00 26,9 C 23,1 C 0,0 UV-I 0,0 C 44 % 50 % 0 % 1012,4 hPa 0,0 l/m 0,0 km/h (0 Bft) 0 min 0,0 km/h (0 Bft)
21.07.2010 00:02 26,9 C 23,1 C 0,0 UV-I 0,0 C 44 % 51 % 0 % 1012,4 hPa 0,0 l/m 0,0 km/h (0 Bft) 0 min 0,0 km/h (0 Bft)
21.07.2010 00:04 26,9 C 23,1 C 0,0 UV-I 0,0 C 44 % 50 % 0 % 1012,4 hPa 0,0 l/m 0,4 km/h (0 Bft) 0 min 0,0 km/h (0 Bft)
21.07.2010 00:06 26,9 C 23,1 C 0,0 UV-I 0,0 C 44 % 51 % 0 % 1012,4 hPa 0,0 l/m 0,8 km/h (0 Bft) 0 min 4,2 km/h (1 Bft)
21.07.2010 00:08 26,9 C 23,1 C 0,0 UV-I 0,0 C 44 % 51 % 0 % 1012,3 hPa 0,0 l/m 1,2 km/h (1 Bft) 0 min 4,2 km/h (1 Bft)
21.07.2010 00:10 26,8 C 23,1 C 0,0 UV-I 0,0 C 44 % 51 % 0 % 1012,3 hPa 0,0 l/m 1,2 km/h (1 Bft) 0 min 4,5 km/h (1 Bft)
21.07.2010 00:12 26,8 C 22,9 C 0,0 UV-I 0,0 C 44 % 51 % 0 % 1012,3 hPa 0,0 l/m 1,6 km/h (1 Bft) 0 min 3,5 km/h (1 Bft)
21.07.2010 00:14 26,8 C 22,9 C 0,0 UV-I 0,0 C 44 % 51 % 0 % 1012,3 hPa 0,0 l/m 1,6 km/h (1 Bft) 0 min 4,5 km/h (1 Bft)
21.07.2010 00:16 26,8 C 22,9 C 0,0 UV-I 0,0 C 44 % 51 % 0 % 1012,3 hPa 0,0 l/m 1,6 km/h (1 Bft) 0 min 4,5 km/h (1 Bft)
21.07.2010 00:18 26,8 C 22,8 C 0,0 UV-I 0,0 C 44 % 51 % 0 % 1012,3 hPa 0,0 l/m 1,2 km/h (1 Bft) 0 min 3,9 km/h (1 Bft)
21.07.2010 00:20 26,8 C 22,8 C 0,0 UV-I 0,0 C 44 % 51 % 0 % 1012,3 hPa 0,0 l/m 1,2 km/h (1 Bft) 0 min 4,8 km/h (1 Bft)
21.07.2010 00:22 26,8 C 22,9 C 0,0 UV-I 0,0 C 44 % 51 % 0 % 1012,3 hPa 0,0 l/m 1,2 km/h (1 Bft) 0 min 0,0 km/h (0 Bft)
21.07.2010 00:24 26,8 C 22,9 C 0,0 UV-I 0,0 C 44 % 51 % 0 % 1012,3 hPa 0,0 l/m 1,2 km/h (1 Bft) 0 min 0,0 km/h (0 Bft)
21.07.2010 00:26 26,8 C 22,8 C 0,0 UV-I 0,0 C 44 % 51 % 0 % 1012,3 hPa 0,0 l/m 0,8 km/h (0 Bft) 0 min 0,0 km/h (0 Bft)
21.07.2010 00:28 26,8 C 22,8 C 0,0 UV-I 0,0 C 44 % 51 % 0 % 1012,1 hPa 0,0 l/m 0,8 km/h (0 Bft) 0 min 4,2 km/h (1 Bft)
21.07.2010 00:30 26,8 C 22,8 C 0,0 UV-I 0,0 C 44 % 51 % 0 % 1012,1 hPa 0,0 l/m 0,8 km/h (0 Bft) 0 min 4,2 km/h (1 Bft)
21.07.2010 00:32 26,8 C 22,7 C 0,0 UV-I 0,0 C 44 % 51 % 0 % 1012,1 hPa 0,0 l/m 0,8 km/h (0 Bft) 0 min 0,0 km/h (0 Bft)
21.07.2010 00:34 26,8 C 22,7 C 0,0 UV-I 0,0 C 44 % 51 % 0 % 1012,1 hPa 0,0 l/m 0,8 km/h (0 Bft) 0 min 3,9 km/h (1 Bft)
21.07.2010 00:36 26,8 C 22,7 C 0,0 UV-I 0,0 C 44 % 51 % 0 % 1012,1 hPa 0,0 l/m 1,2 km/h (1 Bft) 0 min 3,9 km/h (1 Bft)
21.07.2010 00:38 26,8 C 22,7 C 0,0 UV-I 0,0 C 44 % 51 % 0 % 1012,1 hPa 0,0 l/m 1,6 km/h (1 Bft) 0 min 3,9 km/h (1 Bft)
21.07.2010 00:40 26,7 C 22,7 C 0,0 UV-I 0,0 C 44 % 51 % 0 % 1012,1 hPa 0,0 l/m 1,6 km/h (1 Bft) 0 min 5,5 km/h (1 Bft)
21.07.2010 00:42 26,7 C 22,7 C 0,0 UV-I 0,0 C 44 % 51 % 0 % 1012,1 hPa 0,0 l/m 1,6 km/h (1 Bft) 0 min 4,8 km/h (1 Bft)
21.07.2010 00:44 26,7 C 22,6 C 0,0 UV-I 0,0 C 44 % 51 % 0 % 1012,1 hPa 0,0 l/m 2,0 km/h (1 Bft) 0 min 4,8 km/h (1 Bft)
21.07.2010 00:46 26,7 C 22,6 C 0,0 UV-I 0,0 C 44 % 52 % 0 % 1012,1 hPa 0,0 l/m 2,0 km/h (1 Bft) 0 min 3,2 km/h (1 Bft)
21.07.2010 00:48 26,7 C 22,7 C 0,0 UV-I 0,0 C 44 % 52 % 0 % 1011,9 hPa 0,0 l/m 2,0 km/h (1 Bft) 0 min 3,2 km/h (1 Bft)
21.07.2010 00:50 26,7 C 22,6 C 0,0 UV-I 0,0 C 44 % 52 % 0 % 1011,9 hPa 0,0 l/m 1,6 km/h (1 Bft) 0 min 6,1 km/h (2 Bft)
21.07.2010 00:52 26,7 C 22,5 C 0,0 UV-I 0,0 C 44 % 52 % 0 % 1011,9 hPa 0,0 l/m 1,2 km/h (1 Bft) 0 min 3,2 km/h (1 Bft)
21.07.2010 00:54 26,7 C 22,5 C 0,0 UV-I 0,0 C 44 % 52 % 0 % 1011,9 hPa 0,0 l/m 1,2 km/h (1 Bft) 0 min 4,5 km/h (1 Bft)
21.07.2010 00:56 26,7 C 22,4 C 0,0 UV-I 0,0 C 44 % 52 % 0 % 1011,9 hPa 0,0 l/m 1,6 km/h (1 Bft) 0 min 6,8 km/h (2 Bft)
21.07.2010 00:58 26,7 C 22,5 C 0,0 UV-I 0,0 C 44 % 52 % 0 % 1011,9 hPa 0,0 l/m 2,0 km/h (1 Bft) 0 min 6,8 km/h (2 Bft)
21.07.2010 01:00 26,6 C 22,4 C 0,0 UV-I 0,0 C 44 % 53 % 0 % 1011,9 hPa 0,0 l/m 2,4 km/h (1 Bft) 0 min 6,8 km/h (2 Bft)
21.07.2010 01:02 26,6 C 22,3 C 0,0 UV-I 0,0 C 44 % 53 % 0 % 1011,9 hPa 0,0 l/m 2,4 km/h (1 Bft) 0 min 3,9 km/h (1 Bft)
21.07.2010 01:04 26,6 C 22,3 C 0,0 UV-I 0,0 C 44 % 53 % 0 % 1011,9 hPa 0,0 l/m 2,8 km/h (1 Bft) 0 min 4,5 km/h (1 Bft)
21.07.2010 01:06 26,6 C 22,3 C 0,0 UV-I 0,0 C 44 % 53 % 0 % 1011,9 hPa 0,0 l/m 2,4 km/h (1 Bft) 0 min 4,5 km/h (1 Bft)
21.07.2010 01:08 26,6 C 22,2 C 0,0 UV-I 0,0 C 44 % 53 % 0 % 1011,9 hPa 0,0 l/m 2,0 km/h (1 Bft) 0 min 4,5 km/h (1 Bft)
21.07.2010 01:10 26,6 C 22,2 C 0,0 UV-I 0,0 C 44 % 53 % 0 % 1011,9 hPa 0,0 l/m 2,0 km/h (1 Bft) 0 min 4,5 km/h (1 Bft)
21.07.2010 01:12 26,6 C 22,1 C 0,0 UV-I 0,0 C 44 % 53 % 0 % 1011,9 hPa 0,0 l/m 2,0 km/h (1 Bft) 0 min 3,9 km/h (1 Bft)
21.07.2010 01:14 26,6 C 22,1 C 0,0 UV-I 0,0 C 44 % 53 % 0 % 1011,9 hPa 0,0 l/m 2,0 km/h (1 Bft) 0 min 0,0 km/h (0 Bft)
21.07.2010 01:16 26,6 C 22,0 C 0,0 UV-I 0,0 C 44 % 53 % 0 % 1011,9 hPa 0,0 l/m 1,6 km/h (1 Bft) 0 min 0,0 km/h (0 Bft)
21.07.2010 01:18 26,6 C 22,1 C 0,0 UV-I 0,0 C 45 % 54 % 0 % 1011,9 hPa 0,0 l/m 1,6 km/h (1 Bft) 0 min 3,2 km/h (1 Bft)
21.07.2010 01:20 26,6 C 22,0 C 0,0 UV-I 0,0 C 44 % 54 % 0 % 1011,9 hPa 0,0 l/m 1,2 km/h (1 Bft) 0 min 3,2 km/h (1 Bft)
21.07.2010 01:22 26,6 C 22,0 C 0,0 UV-I 0,0 C 45 % 54 % 0 % 1011,9 hPa 0,0 l/m 1,2 km/h (1 Bft) 0 min 4,2 km/h (1 Bft)
21.07.2010 01:24 26,6 C 21,9 C 0,0 UV-I 0,0 C 45 % 54 % 0 % 1011,9 hPa 0,0 l/m 1,2 km/h (1 Bft) 0 min 4,2 km/h (1 Bft)
21.07.2010 01:26 26,5 C 21,9 C 0,0 UV-I 0,0 C 45 % 54 % 0 % 1011,9 hPa 0,0 l/m 0,8 km/h (0 Bft) 0 min 0,0 km/h (0 Bft)
21.07.2010 01:28 26,5 C 21,8 C 0,0 UV-I 0,0 C 45 % 54 % 0 % 1011,9 hPa 0,0 l/m 0,8 km/h (0 Bft) 0 min 0,0 km/h (0 Bft)
21.07.2010 01:30 26,5 C 21,8 C 0,0 UV-I 0,0 C 45 % 54 % 0 % 1011,9 hPa 0,0 l/m 1,2 km/h (1 Bft) 0 min 7,7 km/h (2 Bft)
21.07.2010 01:32 26,5 C 21,7 C 0,0 UV-I 0,0 C 45 % 55 % 0 % 1011,9 hPa 0,0 l/m 1,6 km/h (1 Bft) 0 min 6,8 km/h (2 Bft)
21.07.2010 01:34 26,5 C 21,6 C 0,0 UV-I 0,0 C 45 % 55 % 0 % 1011,9 hPa 0,0 l/m 1,6 km/h (1 Bft) 0 min 6,8 km/h (2 Bft)
21.07.2010 01:36 26,5 C 21,7 C 0,0 UV-I 0,0 C 45 % 55 % 0 % 1011,9 hPa 0,0 l/m 1,6 km/h (1 Bft) 0 min 3,9 km/h (1 Bft)
21.07.2010 01:38 26,4 C 21,5 C 0,0 UV-I 0,0 C 45 % 55 % 0 % 1011,9 hPa 0,0 l/m 2,0 km/h (1 Bft) 0 min 3,9 km/h (1 Bft)
21.07.2010 01:40 26,4 C 21,5 C 0,0 UV-I 0,0 C 45 % 55 % 0 % 1011,9 hPa 0,0 l/m 1,6 km/h (1 Bft) 0 min 4,8 km/h (1 Bft)
21.07.2010 01:42 26,4 C 21,4 C 0,0 UV-I 0,0 C 45 % 55 % 0 % 1011,9 hPa 0,0 l/m 1,6 km/h (1 Bft) 0 min 4,8 km/h (1 Bft)
21.07.2010 01:44 26,4 C 21,5 C 0,0 UV-I 0,0 C 45 % 56 % 0 % 1011,9 hPa 0,0 l/m 1,2 km/h (1 Bft) 0 min 0,0 km/h (0 Bft)
21.07.2010 01:46 26,4 C 21,4 C 0,0 UV-I 0,0 C 45 % 56 % 0 % 1011,9 hPa 0,0 l/m 1,2 km/h (1 Bft) 0 min 0,0 km/h (0 Bft)
21.07.2010 01:48 26,4 C 21,3 C 0,0 UV-I 0,0 C 45 % 56 % 0 % 1011,6 hPa 0,0 l/m 1,2 km/h (1 Bft) 0 min 3,2 km/h (1 Bft)
21.07.2010 01:52 26,4 C 21,2 C 0,0 UV-I 0,0 C 45 % 56 % 0 % 1011,6 hPa 0,0 l/m 0,8 km/h (0 Bft) 0 min 3,2 km/h (1 Bft)
21.07.2010 01:54 26,4 C 21,3 C 0,0 UV-I 0,0 C 45 % 56 % 0 % 1011,6 hPa 0,0 l/m 1,2 km/h (1 Bft) 0 min 0,0 km/h (0 Bft)
21.07.2010 01:56 26,4 C 21,2 C 0,0 UV-I 0,0 C 45 % 56 % 0 % 1011,6 hPa 0,0 l/m 1,2 km/h (1 Bft) 0 min 0,0 km/h (0 Bft)
21.07.2010 01:58 26,4 C 21,2 C 0,0 UV-I 0,0 C 45 % 57 % 0 % 1011,6 hPa 0,0 l/m 1,2 km/h (1 Bft) 0 min 0,0 km/h (0 Bft)
21.07.2010 02:00 26,4 C 21,1 C 0,0 UV-I 0,0 C 45 % 57 % 0 % 1011,6 hPa 0,0 l/m 1,2 km/h (1 Bft) 0 min 0,0 km/h (0 Bft)
21.07.2010 02:02 26,4 C 21,1 C 0,0 UV-I 0,0 C 45 % 57 % 0 % 1011,6 hPa 0,0 l/m 1,2 km/h (1 Bft) 0 min 3,9 km/h (1 Bft)
21.07.2010 02:04 26,4 C 21,1 C 0,0 UV-I 0,0 C 45 % 57 % 0 % 1011,6 hPa 0,0 l/m 1,6 km/h (1 Bft) 0 min 3,9 km/h (1 Bft)
21.07.2010 02:06 26,2 C 21,0 C 0,0 UV-I 0,0 C 45 % 57 % 0 % 1011,6 hPa 0,0 l/m 1,6 km/h (1 Bft) 0 min 3,9 km/h (1 Bft)
21.07.2010 02:08 26,2 C 21,1 C 0,0 UV-I 0,0 C 45 % 57 % 0 % 1011,2 hPa 0,0 l/m 1,6 km/h (1 Bft) 0 min 5,8 km/h (2 Bft)
21.07.2010 02:10 26,3 C 21,1 C 0,0 UV-I 0,0 C 45 % 57 % 0 % 1011,2 hPa 0,0 l/m 2,0 km/h (1 Bft) 0 min 5,8 km/h (2 Bft)
21.07.2010 02:12 26,3 C 21,1 C 0,0 UV-I 0,0 C 45 % 57 % 0 % 1011,2 hPa 0,0 l/m 2,0 km/h (1 Bft) 0 min 0,0 km/h (0 Bft)
21.07.2010 02:14 26,3 C 21,0 C 0,0 UV-I 0,0 C 45 % 57 % 0 % 1011,2 hPa 0,0 l/m 2,0 km/h (1 Bft) 0 min 3,9 km/h (1 Bft)
21.07.2010 02:16 26,3 C 21,1 C 0,0 UV-I 0,0 C 45 % 57 % 0 % 1011,2 hPa 0,0 l/m 2,0 km/h (1 Bft) 0 min 3,9 km/h (1 Bft)
21.07.2010 02:18 26,3 C 20,9 C 0,0 UV-I 0,0 C 45 % 57 % 0 % 1011,2 hPa 0,0 l/m 2,0 km/h (1 Bft) 0 min 4,2 km/h (1 Bft)
21.07.2010 02:20 26,3 C 21,0 C 0,0 UV-I 0,0 C 45 % 57 % 0 % 1011,2 hPa 0,0 l/m 1,6 km/h (1 Bft) 0 min 4,2 km/h (1 Bft)
21.07.2010 02:22 26,2 C 20,9 C 0,0 UV-I 0,0 C 45 % 58 % 0 % 1011,2 hPa 0,0 l/m 1,6 km/h (1 Bft) 0 min 4,8 km/h (1 Bft)
21.07.2010 02:24 26,3 C 20,9 C 0,0 UV-I 0,0 C 45 % 58 % 0 % 1011,2 hPa 0,0 l/m 1,6 km/h (1 Bft) 0 min 4,8 km/h (1 Bft)
21.07.2010 02:26 26,2 C 20,9 C 0,0 UV-I 0,0 C 45 % 58 % 0 % 1011,2 hPa 0,0 l/m 1,2 km/h (1 Bft) 0 min 0,0 km/h (0 Bft)
21.07.2010 02:28 26,2 C 20,9 C 0,0 UV-I 0,0 C 45 % 58 % 0 % 1011,2 hPa 0,0 l/m 1,2 km/h (1 Bft) 0 min 0,0 km/h (0 Bft)
21.07.2010 02:30 26,2 C 20,9 C 0,0 UV-I 0,0 C 45 % 58 % 0 % 1011,2 hPa 0,0 l/m 1,2 km/h (1 Bft) 0 min 0,0 km/h (0 Bft)
21.07.2010 02:32 26,2 C 20,8 C 0,0 UV-I 0,0 C 45 % 58 % 0 % 1011,2 hPa 0,0 l/m 1,2 km/h (1 Bft) 0 min 3,9 km/h (1 Bft)
21.07.2010 02:34 26,2 C 20,8 C 0,0 UV-I 0,0 C 45 % 58 % 0 % 1011,2 hPa 0,0 l/m 1,2 km/h (1 Bft) 0 min 3,9 km/h (1 Bft)
21.07.2010 02:36 26,2 C 20,8 C 0,0 UV-I 0,0 C 45 % 58 % 0 % 1011,2 hPa 0,0 l/m 2,0 km/h (1 Bft) 0 min 6,8 km/h (2 Bft)
21.07.2010 02:38 26,2 C 20,8 C 0,0 UV-I 0,0 C 45 % 58 % 0 % 1011,2 hPa 0,0 l/m 2,0 km/h (1 Bft) 0 min 6,8 km/h (2 Bft)
21.07.2010 02:40 26,2 C 20,8 C 0,0 UV-I 0,0 C 45 % 58 % 0 % 1011,2 hPa 0,0 l/m 1,6 km/h (1 Bft) 0 min 4,2 km/h (1 Bft)
21.07.2010 02:42 26,2 C 20,8 C 0,0 UV-I 0,0 C 45 % 58 % 0 % 1011,2 hPa 0,0 l/m 2,0 km/h (1 Bft) 0 min 0,0 km/h (0 Bft)
21.07.2010 02:44 26,2 C 20,9 C 0,0 UV-I 0,0 C 45 % 58 % 0 % 1011,2 hPa 0,0 l/m 2,0 km/h (1 Bft) 0 min 5,5 km/h (1 Bft)
21.07.2010 02:46 26,2 C 20,8 C 0,0 UV-I 0,0 C 45 % 58 % 0 % 1011,2 hPa 0,0 l/m 2,4 km/h (1 Bft) 0 min 4,5 km/h (1 Bft)
21.07.2010 02:50 26,2 C 20,9 C 0,0 UV-I 0,0 C 45 % 58 % 0 % 1010,9 hPa 0,0 l/m 2,4 km/h (1 Bft) 0 min 4,8 km/h (1 Bft)
21.07.2010 02:52 26,2 C 20,8 C 0,0 UV-I 0,0 C 45 % 58 % 0 % 1010,9 hPa 0,0 l/m 2,4 km/h (1 Bft) 0 min 3,2 km/h (1 Bft)
21.07.2010 02:54 26,2 C 20,8 C 0,0 UV-I 0,0 C 45 % 58 % 0 % 1010,9 hPa 0,0 l/m 2,8 km/h (1 Bft) 0 min 4,2 km/h (1 Bft)
21.07.2010 02:56 26,2 C 20,8 C 0,0 UV-I 0,0 C 45 % 58 % 0 % 1010,9 hPa 0,0 l/m 2,4 km/h (1 Bft) 0 min 4,2 km/h (1 Bft)
21.07.2010 02:58 26,1 C 20,8 C 0,0 UV-I 0,0 C 45 % 58 % 0 % 1010,9 hPa 0,0 l/m 2,4 km/h (1 Bft) 0 min 4,2 km/h (1 Bft)
21.07.2010 03:00 26,1 C 20,7 C 0,0 UV-I 0,0 C 45 % 59 % 0 % 1010,9 hPa 0,0 l/m 2,4 km/h (1 Bft) 0 min 4,2 km/h (1 Bft)
21.07.2010 03:02 26,1 C 20,7 C 0,0 UV-I 0,0 C 45 % 59 % 0 % 1010,9 hPa 0,0 l/m 2,4 km/h (1 Bft) 0 min 3,9 km/h (1 Bft)
21.07.2010 03:04 26,1 C 20,7 C 0,0 UV-I 0,0 C 45 % 59 % 0 % 1010,9 hPa 0,0 l/m 2,4 km/h (1 Bft) 0 min 0,0 km/h (0 Bft)
21.07.2010 03:06 26,1 C 20,6 C 0,1 UV-I 0,0 C 45 % 59 % 0 % 1010,9 hPa 0,0 l/m 2,4 km/h (1 Bft) 0 min 3,9 km/h (1 Bft)
21.07.2010 03:08 26,1 C 20,7 C 0,1 UV-I 0,0 C 45 % 59 % 0 % 1010,8 hPa 0,0 l/m 2,0 km/h (1 Bft) 0 min 3,9 km/h (1 Bft)
21.07.2010 03:10 26,1 C 20,7 C 0,1 UV-I 0,0 C 45 % 59 % 0 % 1010,8 hPa 0,0 l/m 2,0 km/h (1 Bft) 0 min 4,2 km/h (1 Bft)
21.07.2010 03:12 26,1 C 20,5 C 0,1 UV-I 0,0 C 45 % 59 % 0 % 1010,8 hPa 0,0 l/m 1,6 km/h (1 Bft) 0 min 4,2 km/h (1 Bft)
21.07.2010 03:14 26,1 C 20,5 C 0,1 UV-I 0,0 C 45 % 59 % 0 % 1010,8 hPa 0,0 l/m 1,2 km/h (1 Bft) 0 min 3,5 km/h (1 Bft)
21.07.2010 03:16 26,1 C 20,5 C 0,1 UV-I 0,0 C 45 % 59 % 0 % 1010,8 hPa 0,0 l/m 1,2 km/h (1 Bft) 0 min 3,5 km/h (1 Bft)
21.07.2010 03:18 26,0 C 20,4 C 0,1 UV-I 0,0 C 46 % 60 % 0 % 1010,8 hPa 0,0 l/m 1,2 km/h (1 Bft) 0 min 3,5 km/h (1 Bft)
21.07.2010 03:22 26,0 C 20,4 C 0,1 UV-I 0,0 C 46 % 60 % 0 % 1010,8 hPa 0,0 l/m 0,8 km/h (0 Bft) 0 min 3,5 km/h (1 Bft)
21.07.2010 03:24 26,0 C 20,4 C 0,1 UV-I 0,0 C 46 % 60 % 0 % 1010,8 hPa 0,0 l/m 0,8 km/h (0 Bft) 0 min 4,2 km/h (1 Bft)
21.07.2010 03:26 26,0 C 20,3 C 0,0 UV-I 0,0 C 46 % 60 % 0 % 1010,8 hPa 0,0 l/m 1,2 km/h (1 Bft) 0 min 4,2 km/h (1 Bft)
21.07.2010 03:28 26,0 C 20,2 C 0,0 UV-I 0,0 C 46 % 60 % 0 % 1010,4 hPa 0,0 l/m 0,8 km/h (0 Bft) 0 min 4,2 km/h (1 Bft)
21.07.2010 03:30 26,0 C 20,3 C 0,0 UV-I 0,0 C 46 % 60 % 0 % 1010,4 hPa 0,0 l/m 1,2 km/h (1 Bft) 0 min 3,9 km/h (1 Bft)
21.07.2010 03:32 26,0 C 20,3 C 0,0 UV-I 0,0 C 46 % 61 % 0 % 1010,4 hPa 0,0 l/m 2,0 km/h (1 Bft) 0 min 4,2 km/h (1 Bft)
21.07.2010 03:34 26,0 C 20,2 C 0,0 UV-I 0,0 C 46 % 61 % 0 % 1010,4 hPa 0,0 l/m 2,4 km/h (1 Bft) 0 min 7,4 km/h (2 Bft)
21.07.2010 03:36 26,0 C 20,2 C 0,0 UV-I 0,0 C 46 % 61 % 0 % 1010,4 hPa 0,0 l/m 2,4 km/h (1 Bft) 0 min 7,4 km/h (2 Bft)
21.07.2010 03:38 26,0 C 20,1 C 0,0 UV-I 0,0 C 46 % 61 % 0 % 1010,4 hPa 0,0 l/m 2,4 km/h (1 Bft) 0 min 6,8 km/h (2 Bft)
21.07.2010 03:40 26,0 C 20,1 C 0,0 UV-I 0,0 C 46 % 61 % 0 % 1010,4 hPa 0,0 l/m 2,8 km/h (1 Bft) 0 min 6,8 km/h (2 Bft)
21.07.2010 03:42 26,0 C 20,1 C 0,0 UV-I 0,0 C 46 % 61 % 0 % 1010,4 hPa 0,0 l/m 2,8 km/h (1 Bft) 0 min 5,8 km/h (2 Bft)
21.07.2010 03:44 26,0 C 20,0 C 0,0 UV-I 0,0 C 46 % 61 % 0 % 1010,4 hPa 0,0 l/m 2,8 km/h (1 Bft) 0 min 5,8 km/h (2 Bft)
21.07.2010 03:46 26,0 C 20,0 C 0,0 UV-I 0,0 C 46 % 61 % 0 % 1010,4 hPa 0,0 l/m 2,8 km/h (1 Bft) 0 min 4,2 km/h (1 Bft)
21.07.2010 03:50 25,9 C 20,0 C 0,0 UV-I 0,0 C 46 % 61 % 0 % 1010,3 hPa 0,0 l/m 2,0 km/h (1 Bft) 0 min 4,2 km/h (1 Bft)
21.07.2010 03:52 25,9 C 20,1 C 0,0 UV-I 0,0 C 46 % 62 % 0 % 1010,3 hPa 0,0 l/m 1,6 km/h (1 Bft) 0 min 4,5 km/h (1 Bft)
21.07.2010 03:54 25,9 C 20,0 C 0,0 UV-I 0,0 C 46 % 62 % 0 % 1010,3 hPa 0,0 l/m 1,2 km/h (1 Bft) 0 min 4,5 km/h (1 Bft)
21.07.2010 03:56 25,9 C 19,9 C 0,0 UV-I 0,0 C 46 % 62 % 0 % 1010,3 hPa 0,0 l/m 1,2 km/h (1 Bft) 0 min 0,0 km/h (0 Bft)
21.07.2010 03:58 25,9 C 19,9 C 0,0 UV-I 0,0 C 46 % 62 % 0 % 1010,3 hPa 0,0 l/m 1,6 km/h (1 Bft) 0 min 4,5 km/h (1 Bft)
21.07.2010 04:00 25,9 C 19,8 C 0,0 UV-I 0,0 C 46 % 62 % 0 % 1010,3 hPa 0,0 l/m 2,0 km/h (1 Bft) 0 min 4,8 km/h (1 Bft)
21.07.2010 04:02 25,8 C 19,8 C 0,0 UV-I 0,0 C 46 % 62 % 0 % 1010,3 hPa 0,0 l/m 2,4 km/h (1 Bft) 0 min 4,8 km/h (1 Bft)
21.07.2010 04:04 25,8 C 19,9 C 0,0 UV-I 0,0 C 46 % 62 % 0 % 1010,3 hPa 0,0 l/m 2,4 km/h (1 Bft) 0 min 3,2 km/h (1 Bft)
21.07.2010 04:06 25,8 C 19,9 C 0,0 UV-I 0,0 C 46 % 63 % 0 % 1010,3 hPa 0,0 l/m 2,4 km/h (1 Bft) 0 min 4,2 km/h (1 Bft)
21.07.2010 04:08 25,8 C 19,8 C 0,0 UV-I 0,0 C 46 % 62 % 0 % 1010,2 hPa 0,0 l/m 2,4 km/h (1 Bft) 0 min 4,2 km/h (1 Bft)
21.07.2010 04:10 25,8 C 19,7 C 0,0 UV-I 0,0 C 46 % 63 % 0 % 1010,2 hPa 0,0 l/m 1,6 km/h (1 Bft) 0 min 4,2 km/h (1 Bft)
21.07.2010 04:12 25,8 C 19,7 C 0,0 UV-I 0,0 C 46 % 63 % 0 % 1010,2 hPa 0,0 l/m 1,6 km/h (1 Bft) 0 min 0,0 km/h (0 Bft)
21.07.2010 04:14 25,8 C 19,7 C 0,0 UV-I 0,0 C 46 % 63 % 0 % 1010,2 hPa 0,0 l/m 1,6 km/h (1 Bft) 0 min 5,8 km/h (2 Bft)
21.07.2010 04:16 25,8 C 19,6 C 0,0 UV-I 0,0 C 46 % 63 % 0 % 1010,2 hPa 0,0 l/m 1,6 km/h (1 Bft) 0 min 5,8 km/h (2 Bft)
21.07.2010 04:18 25,8 C 19,6 C 0,0 UV-I 0,0 C 46 % 63 % 0 % 1010,2 hPa 0,0 l/m 2,0 km/h (1 Bft) 0 min 4,8 km/h (1 Bft)
21.07.2010 04:20 25,8 C 19,7 C 0,0 UV-I 0,0 C 46 % 63 % 0 % 1010,2 hPa 0,0 l/m 2,4 km/h (1 Bft) 0 min 4,8 km/h (1 Bft)
21.07.2010 04:22 25,8 C 19,6 C 0,0 UV-I 0,0 C 46 % 63 % 0 % 1010,2 hPa 0,0 l/m 2,8 km/h (1 Bft) 0 min 3,9 km/h (1 Bft)
21.07.2010 04:24 25,8 C 19,5 C 0,0 UV-I 0,0 C 46 % 63 % 0 % 1010,2 hPa 0,0 l/m 2,8 km/h (1 Bft) 0 min 0,0 km/h (0 Bft)
21.07.2010 04:26 25,8 C 19,5 C 0,0 UV-I 0,0 C 46 % 63 % 0 % 1010,2 hPa 0,0 l/m 2,4 km/h (1 Bft) 0 min 3,2 km/h (1 Bft)
21.07.2010 04:28 25,8 C 19,4 C 0,0 UV-I 0,0 C 46 % 63 % 0 % 1010,1 hPa 0,0 l/m 2,4 km/h (1 Bft) 0 min 4,5 km/h (1 Bft)
21.07.2010 04:30 25,7 C 19,5 C 0,0 UV-I 0,0 C 46 % 64 % 0 % 1010,1 hPa 0,0 l/m 2,4 km/h (1 Bft) 0 min 4,5 km/h (1 Bft)
21.07.2010 04:32 25,7 C 19,4 C 0,0 UV-I 0,0 C 46 % 64 % 0 % 1010,1 hPa 0,0 l/m 2,0 km/h (1 Bft) 0 min 4,5 km/h (1 Bft)
21.07.2010 04:34 25,7 C 19,3 C 0,0 UV-I 0,0 C 46 % 64 % 0 % 1010,1 hPa 0,0 l/m 2,0 km/h (1 Bft) 0 min 4,5 km/h (1 Bft)
21.07.2010 04:36 25,7 C 19,3 C 0,0 UV-I 0,0 C 46 % 64 % 0 % 1010,1 hPa 0,0 l/m 2,0 km/h (1 Bft) 0 min 0,0 km/h (0 Bft)
21.07.2010 04:38 25,7 C 19,3 C 0,0 UV-I 0,0 C 46 % 64 % 0 % 1010,1 hPa 0,0 l/m 2,0 km/h (1 Bft) 0 min 0,0 km/h (0 Bft)
21.07.2010 04:40 25,7 C 19,2 C 0,0 UV-I 0,0 C 46 % 64 % 0 % 1010,1 hPa 0,0 l/m 1,6 km/h (1 Bft) 0 min 3,2 km/h (1 Bft)
21.07.2010 04:42 25,7 C 19,3 C 0,0 UV-I 0,0 C 46 % 64 % 0 % 1010,1 hPa 0,0 l/m 1,6 km/h (1 Bft) 0 min 4,8 km/h (1 Bft)
21.07.2010 04:44 25,7 C 19,2 C 0,0 UV-I 0,0 C 47 % 64 % 0 % 1010,1 hPa 0,0 l/m 1,6 km/h (1 Bft) 0 min 4,8 km/h (1 Bft)
21.07.2010 04:46 25,7 C 19,2 C 0,0 UV-I 0,0 C 47 % 65 % 0 % 1010,1 hPa 0,0 l/m 2,0 km/h (1 Bft) 0 min 5,8 km/h (2 Bft)
21.07.2010 04:48 25,7 C 19,1 C 0,0 UV-I 0,0 C 47 % 65 % 0 % 1009,8 hPa 0,0 l/m 2,0 km/h (1 Bft) 0 min 0,0 km/h (0 Bft)
21.07.2010 04:50 25,7 C 19,1 C 0,0 UV-I 0,0 C 47 % 65 % 0 % 1009,8 hPa 0,0 l/m 2,4 km/h (1 Bft) 0 min 3,9 km/h (1 Bft)
21.07.2010 04:54 25,7 C 19,1 C 0,0 UV-I 0,0 C 47 % 65 % 0 % 1009,8 hPa 0,0 l/m 2,4 km/h (1 Bft) 0 min 5,8 km/h (2 Bft)
21.07.2010 04:56 25,7 C 19,1 C 0,1 UV-I 0,0 C 47 % 65 % 0 % 1009,8 hPa 0,0 l/m 2,0 km/h (1 Bft) 0 min 0,0 km/h (0 Bft)
21.07.2010 04:58 25,7 C 19,1 C 0,1 UV-I 0,0 C 47 % 65 % 0 % 1009,8 hPa 0,0 l/m 1,6 km/h (1 Bft) 0 min 0,0 km/h (0 Bft)
21.07.2010 05:00 25,7 C 19,0 C 0,1 UV-I 0,0 C 47 % 66 % 0 % 1009,8 hPa 0,0 l/m 1,6 km/h (1 Bft) 0 min 0,0 km/h (0 Bft)
21.07.2010 05:02 25,7 C 18,9 C 0,1 UV-I 0,0 C 47 % 66 % 0 % 1009,8 hPa 0,0 l/m 0,8 km/h (0 Bft) 0 min 0,0 km/h (0 Bft)
21.07.2010 05:04 25,7 C 18,9 C 0,1 UV-I 0,0 C 47 % 66 % 0 % 1009,8 hPa 0,0 l/m 0,0 km/h (0 Bft) 0 min 0,0 km/h (0 Bft)
21.07.2010 05:06 25,7 C 18,9 C 0,1 UV-I 0,0 C 47 % 66 % 0 % 1009,8 hPa 0,0 l/m 0,0 km/h (0 Bft) 0 min 4,8 km/h (1 Bft)
21.07.2010 05:08 25,7 C 18,8 C 0,1 UV-I 0,0 C 47 % 66 % 0 % 1010,1 hPa 0,0 l/m 0,8 km/h (0 Bft) 0 min 4,2 km/h (1 Bft)
21.07.2010 05:10 25,7 C 18,8 C 0,1 UV-I 0,0 C 47 % 66 % 0 % 1010,1 hPa 0,0 l/m 1,6 km/h (1 Bft) 0 min 5,8 km/h (2 Bft)
21.07.2010 05:12 25,7 C 18,8 C 0,0 UV-I 0,0 C 47 % 66 % 0 % 1010,1 hPa 0,0 l/m 2,4 km/h (1 Bft) 0 min 6,1 km/h (2 Bft)
21.07.2010 05:14 25,6 C 18,9 C 0,0 UV-I 0,0 C 47 % 66 % 0 % 1010,1 hPa 0,0 l/m 3,2 km/h (1 Bft) 0 min 6,1 km/h (2 Bft)
21.07.2010 05:16 25,7 C 18,9 C 0,0 UV-I 0,0 C 47 % 67 % 0 % 1010,1 hPa 0,0 l/m 3,6 km/h (1 Bft) 0 min 4,8 km/h (1 Bft)
21.07.2010 05:18 25,6 C 18,8 C 0,0 UV-I 0,0 C 47 % 67 % 0 % 1010,1 hPa 0,0 l/m 3,2 km/h (1 Bft) 0 min 4,8 km/h (1 Bft)
21.07.2010 05:20 25,6 C 18,8 C 0,0 UV-I 0,0 C 47 % 67 % 0 % 1010,1 hPa 0,0 l/m 3,2 km/h (1 Bft) 0 min 0,0 km/h (0 Bft)
21.07.2010 05:22 25,6 C 18,8 C 0,0 UV-I 0,0 C 47 % 67 % 0 % 1010,1 hPa 0,0 l/m 3,2 km/h (1 Bft) 0 min 3,5 km/h (1 Bft)
21.07.2010 05:24 25,6 C 18,7 C 0,0 UV-I 0,0 C 47 % 67 % 0 % 1010,1 hPa 0,0 l/m 2,4 km/h (1 Bft) 0 min 3,5 km/h (1 Bft)
21.07.2010 05:26 25,6 C 18,8 C 0,0 UV-I 0,0 C 47 % 67 % 0 % 1010,1 hPa 0,0 l/m 2,4 km/h (1 Bft) 0 min 4,8 km/h (1 Bft)
21.07.2010 05:30 25,6 C 18,7 C 0,0 UV-I 0,0 C 47 % 67 % 0 % 1009,6 hPa 0,0 l/m 3,6 km/h (1 Bft) 0 min 8,0 km/h (2 Bft)
21.07.2010 05:32 25,6 C 18,8 C 0,0 UV-I 0,0 C 47 % 67 % 0 % 1009,6 hPa 0,0 l/m 3,6 km/h (1 Bft) 0 min 7,1 km/h (2 Bft)
21.07.2010 05:34 25,6 C 18,7 C 0,0 UV-I 0,0 C 47 % 67 % 0 % 1009,6 hPa 0,0 l/m 3,6 km/h (1 Bft) 0 min 5,1 km/h (1 Bft)
21.07.2010 05:38 25,6 C 18,7 C 0,0 UV-I 0,0 C 47 % 67 % 0 % 1009,6 hPa 0,0 l/m 3,2 km/h (1 Bft) 0 min 5,1 km/h (1 Bft)
21.07.2010 05:40 25,6 C 18,8 C 0,0 UV-I 0,0 C 47 % 67 % 0 % 1009,6 hPa 0,0 l/m 2,8 km/h (1 Bft) 0 min 9,0 km/h (2 Bft)
21.07.2010 05:42 25,6 C 18,7 C 0,0 UV-I 0,0 C 47 % 67 % 0 % 1009,6 hPa 0,0 l/m 3,2 km/h (1 Bft) 0 min 4,5 km/h (1 Bft)
21.07.2010 05:46 25,6 C 18,7 C 0,0 UV-I 0,0 C 47 % 67 % 0 % 1009,6 hPa 0,0 l/m 3,2 km/h (1 Bft) 0 min 5,1 km/h (1 Bft)
21.07.2010 05:48 25,5 C 18,7 C 0,0 UV-I 0,0 C 47 % 67 % 0 % 1009,4 hPa 0,0 l/m 2,8 km/h (1 Bft) 0 min 5,1 km/h (1 Bft)
21.07.2010 05:50 25,6 C 18,7 C 0,0 UV-I 0,0 C 47 % 67 % 0 % 1009,4 hPa 0,0 l/m 3,2 km/h (1 Bft) 0 min 3,2 km/h (1 Bft)
21.07.2010 05:54 25,5 C 18,7 C 0,1 UV-I 0,0 C 47 % 67 % 0 % 1009,4 hPa 0,0 l/m 3,2 km/h (1 Bft) 0 min 6,1 km/h (2 Bft)
21.07.2010 05:56 25,5 C 18,8 C 0,1 UV-I 0,0 C 47 % 67 % 0 % 1009,4 hPa 0,0 l/m 3,6 km/h (1 Bft) 0 min 6,1 km/h (2 Bft)
21.07.2010 05:58 25,5 C 18,7 C 0,1 UV-I 0,0 C 47 % 67 % 0 % 1009,4 hPa 0,0 l/m 3,2 km/h (1 Bft) 0 min 0,0 km/h (0 Bft)
21.07.2010 06:00 25,5 C 18,7 C 0,1 UV-I 0,0 C 47 % 67 % 0 % 1009,4 hPa 0,0 l/m 2,8 km/h (1 Bft) 0 min 3,9 km/h (1 Bft)
21.07.2010 06:02 25,5 C 18,7 C 0,1 UV-I 0,0 C 47 % 67 % 0 % 1009,4 hPa 0,0 l/m 3,2 km/h (1 Bft) 0 min 5,1 km/h (1 Bft)
21.07.2010 06:04 25,5 C 18,7 C 0,1 UV-I 0,0 C 47 % 67 % 0 % 1009,4 hPa 0,0 l/m 3,2 km/h (1 Bft) 0 min 5,1 km/h (1 Bft)
21.07.2010 06:06 25,5 C 18,7 C 0,1 UV-I 0,0 C 47 % 67 % 0 % 1009,4 hPa 0,0 l/m 2,8 km/h (1 Bft) 0 min 6,4 km/h (2 Bft)
21.07.2010 06:08 25,5 C 18,7 C 0,1 UV-I 0,0 C 47 % 67 % 0 % 1009,5 hPa 0,0 l/m 2,8 km/h (1 Bft) 0 min 6,8 km/h (2 Bft)
21.07.2010 06:10 25,5 C 18,7 C 0,1 UV-I 0,0 C 47 % 67 % 0 % 1009,5 hPa 0,0 l/m 3,2 km/h (1 Bft) 0 min 6,8 km/h (2 Bft)
21.07.2010 06:12 25,5 C 18,6 C 0,1 UV-I 0,0 C 47 % 67 % 0 % 1009,5 hPa 0,0 l/m 2,8 km/h (1 Bft) 0 min 3,9 km/h (1 Bft)
21.07.2010 06:18 25,5 C 18,7 C 0,1 UV-I 0,0 C 47 % 67 % 0 % 1009,5 hPa 0,0 l/m 2,4 km/h (1 Bft) 0 min 3,9 km/h (1 Bft)
21.07.2010 06:20 25,4 C 18,7 C 0,1 UV-I 0,0 C 47 % 67 % 0 % 1009,5 hPa 0,0 l/m 2,8 km/h (1 Bft) 0 min 5,1 km/h (1 Bft)
21.07.2010 06:22 25,5 C 18,7 C 0,2 UV-I 0,0 C 47 % 67 % 0 % 1009,5 hPa 0,0 l/m 2,4 km/h (1 Bft) 0 min 5,1 km/h (1 Bft)
21.07.2010 06:24 25,4 C 18,6 C 0,2 UV-I 0,0 C 47 % 67 % 0 % 1009,5 hPa 0,0 l/m 2,4 km/h (1 Bft) 0 min 3,9 km/h (1 Bft)
21.07.2010 06:26 25,4 C 18,7 C 0,2 UV-I 0,0 C 47 % 67 % 0 % 1009,5 hPa 0,0 l/m 1,6 km/h (1 Bft) 0 min 3,9 km/h (1 Bft)
21.07.2010 06:28 25,4 C 18,6 C 0,2 UV-I 0,0 C 47 % 67 % 0 % 1009,2 hPa 0,0 l/m 1,6 km/h (1 Bft) 0 min 3,5 km/h (1 Bft)
21.07.2010 06:30 25,4 C 18,7 C 0,2 UV-I 0,0 C 47 % 67 % 0 % 1009,2 hPa 0,0 l/m 1,6 km/h (1 Bft) 0 min 3,5 km/h (1 Bft)
21.07.2010 06:32 25,4 C 18,6 C 0,5 UV-I 0,0 C 47 % 67 % 0 % 1009,2 hPa 0,0 l/m 1,2 km/h (1 Bft) 0 min 0,0 km/h (0 Bft)
21.07.2010 06:36 25,4 C 18,7 C 0,6 UV-I 0,0 C 47 % 67 % 0 % 1009,2 hPa 0,0 l/m 0,8 km/h (0 Bft) 0 min 6,1 km/h (2 Bft)
21.07.2010 06:38 25,4 C 18,7 C 0,6 UV-I 0,0 C 47 % 67 % 0 % 1009,2 hPa 0,0 l/m 0,8 km/h (0 Bft) 0 min 0,0 km/h (0 Bft)
21.07.2010 06:40 25,4 C 18,7 C 0,6 UV-I 0,0 C 47 % 67 % 0 % 1009,2 hPa 0,0 l/m 0,8 km/h (0 Bft) 0 min 3,5 km/h (1 Bft)
21.07.2010 06:42 25,4 C 18,7 C 0,7 UV-I 0,0 C 47 % 67 % 0 % 1009,2 hPa 0,0 l/m 0,8 km/h (0 Bft) 0 min 4,2 km/h (1 Bft)
21.07.2010 06:44 25,4 C 18,7 C 0,7 UV-I 0,0 C 47 % 67 % 0 % 1009,2 hPa 0,0 l/m 1,6 km/h (1 Bft) 0 min 4,2 km/h (1 Bft)
21.07.2010 06:48 25,4 C 18,7 C 0,8 UV-I 0,0 C 47 % 67 % 0 % 1009,4 hPa 0,0 l/m 2,0 km/h (1 Bft) 0 min 3,9 km/h (1 Bft)
21.07.2010 06:50 25,4 C 18,8 C 0,8 UV-I 0,0 C 47 % 67 % 0 % 1009,4 hPa 0,0 l/m 2,4 km/h (1 Bft) 0 min 5,1 km/h (1 Bft)
21.07.2010 06:52 25,4 C 18,9 C 0,8 UV-I 0,0 C 47 % 68 % 0 % 1009,4 hPa 0,0 l/m 3,2 km/h (1 Bft) 0 min 6,1 km/h (2 Bft)
21.07.2010 06:54 25,4 C 18,9 C 0,8 UV-I 0,0 C 47 % 68 % 0 % 1009,4 hPa 0,0 l/m 3,2 km/h (1 Bft) 0 min 6,1 km/h (2 Bft)
21.07.2010 06:56 25,4 C 18,8 C 1,0 UV-I 0,0 C 47 % 67 % 0 % 1009,4 hPa 0,0 l/m 3,6 km/h (1 Bft) 0 min 5,1 km/h (1 Bft)
21.07.2010 06:58 25,4 C 18,9 C 1,0 UV-I 0,0 C 47 % 68 % 0 % 1009,4 hPa 0,0 l/m 4,0 km/h (1 Bft) 0 min 5,1 km/h (1 Bft)
21.07.2010 07:00 25,4 C 18,8 C 1,0 UV-I 0,0 C 47 % 67 % 0 % 1009,4 hPa 0,0 l/m 4,0 km/h (1 Bft) 0 min 4,5 km/h (1 Bft)
21.07.2010 07:02 25,4 C 18,8 C 1,0 UV-I 0,0 C 47 % 67 % 0 % 1009,4 hPa 0,0 l/m 3,6 km/h (1 Bft) 0 min 4,5 km/h (1 Bft)
21.07.2010 07:04 25,4 C 18,9 C 1,0 UV-I 0,0 C 47 % 68 % 0 % 1009,4 hPa 0,0 l/m 3,2 km/h (1 Bft) 0 min 3,5 km/h (1 Bft)
21.07.2010 07:06 25,4 C 18,9 C 1,1 UV-I 0,0 C 48 % 68 % 0 % 1009,4 hPa 0,0 l/m 3,6 km/h (1 Bft) 0 min 6,8 km/h (2 Bft)
21.07.2010 07:08 25,4 C 19,1 C 1,1 UV-I 0,0 C 48 % 68 % 0 % 1009,1 hPa 0,0 l/m 3,2 km/h (1 Bft) 0 min 6,8 km/h (2 Bft)
21.07.2010 07:10 25,2 C 19,1 C 1,1 UV-I 0,0 C 47 % 68 % 0 % 1009,1 hPa 0,0 l/m 3,6 km/h (1 Bft) 0 min 6,1 km/h (2 Bft)
21.07.2010 07:14 25,2 C 19,0 C 1,2 UV-I 0,0 C 48 % 68 % 0 % 1009,1 hPa 0,0 l/m 4,0 km/h (1 Bft) 0 min 6,4 km/h (2 Bft)
21.07.2010 07:16 25,2 C 19,1 C 1,4 UV-I 0,0 C 48 % 68 % 0 % 1009,1 hPa 0,0 l/m 4,0 km/h (1 Bft) 0 min 6,4 km/h (2 Bft)
21.07.2010 07:18 25,3 C 19,2 C 1,4 UV-I 0,0 C 48 % 68 % 0 % 1009,1 hPa 0,0 l/m 4,8 km/h (1 Bft) 0 min 6,8 km/h (2 Bft)
21.07.2010 07:20 25,3 C 19,3 C 1,4 UV-I 0,0 C 48 % 68 % 0 % 1009,1 hPa 0,0 l/m 5,2 km/h (1 Bft) 0 min 11,6 km/h (2 Bft)
21.07.2010 07:22 25,3 C 19,2 C 1,4 UV-I 0,0 C 48 % 68 % 0 % 1009,1 hPa 0,0 l/m 5,2 km/h (1 Bft) 0 min 5,5 km/h (1 Bft)
21.07.2010 07:28 25,3 C 19,4 C 1,5 UV-I 0,0 C 48 % 67 % 0 % 1009,1 hPa 0,0 l/m 4,4 km/h (1 Bft) 0 min 5,1 km/h (1 Bft)
21.07.2010 07:30 25,3 C 19,4 C 1,5 UV-I 0,0 C 48 % 67 % 0 % 1009,1 hPa 0,0 l/m 4,4 km/h (1 Bft) 0 min 3,9 km/h (1 Bft)
21.07.2010 07:32 25,2 C 19,5 C 1,7 UV-I 0,0 C 48 % 67 % 0 % 1009,1 hPa 0,0 l/m 4,0 km/h (1 Bft) 0 min 4,8 km/h (1 Bft)
21.07.2010 07:34 25,2 C 19,5 C 1,7 UV-I 0,0 C 48 % 67 % 0 % 1009,1 hPa 0,0 l/m 3,6 km/h (1 Bft) 0 min 4,8 km/h (1 Bft)
21.07.2010 07:40 25,2 C 19,7 C 1,8 UV-I 0,0 C 48 % 67 % 0 % 1009,1 hPa 0,0 l/m 4,4 km/h (1 Bft) 0 min 7,1 km/h (2 Bft)
21.07.2010 07:42 25,3 C 19,7 C 2,1 UV-I 0,0 C 48 % 67 % 0 % 1009,1 hPa 0,0 l/m 4,0 km/h (1 Bft) 0 min 3,9 km/h (1 Bft)
21.07.2010 07:44 25,3 C 19,9 C 2,1 UV-I 0,0 C 48 % 67 % 0 % 1009,1 hPa 0,0 l/m 4,0 km/h (1 Bft) 0 min 3,9 km/h (1 Bft)
21.07.2010 07:46 25,3 C 19,9 C 2,3 UV-I 0,0 C 48 % 67 % 0 % 1009,1 hPa 0,0 l/m 3,6 km/h (1 Bft) 0 min 3,9 km/h (1 Bft)
21.07.2010 07:50 25,2 C 20,1 C 2,3 UV-I 0,0 C 48 % 67 % 0 % 1009,2 hPa 0,0 l/m 2,4 km/h (1 Bft) 0 min 5,5 km/h (1 Bft)
21.07.2010 07:52 25,2 C 20,0 C 2,4 UV-I 0,0 C 48 % 67 % 0 % 1009,2 hPa 0,0 l/m 3,2 km/h (1 Bft) 0 min 5,8 km/h (2 Bft)
21.07.2010 07:54 25,2 C 20,2 C 2,4 UV-I 0,0 C 48 % 67 % 0 % 1009,2 hPa 0,0 l/m 3,2 km/h (1 Bft) 0 min 5,8 km/h (2 Bft)
21.07.2010 07:56 25,2 C 20,2 C 2,4 UV-I 0,0 C 48 % 67 % 0 % 1009,2 hPa 0,0 l/m 2,8 km/h (1 Bft) 0 min 5,1 km/h (1 Bft)
21.07.2010 07:58 25,2 C 20,3 C 2,4 UV-I 0,0 C 49 % 66 % 0 % 1009,2 hPa 0,0 l/m 2,8 km/h (1 Bft) 0 min 5,5 km/h (1 Bft)
21.07.2010 08:00 25,2 C 20,4 C 2,4 UV-I 0,0 C 49 % 66 % 0 % 1009,2 hPa 0,0 l/m 2,4 km/h (1 Bft) 0 min 5,8 km/h (2 Bft)
21.07.2010 08:02 25,2 C 20,4 C 2,6 UV-I 0,1 C 49 % 66 % 3 % 1009,2 hPa 0,0 l/m 2,8 km/h (1 Bft) 0 min 5,8 km/h (2 Bft)
21.07.2010 08:06 25,4 C 20,7 C 2,7 UV-I 0,0 C 49 % 66 % 0 % 1009,2 hPa 0,0 l/m 2,8 km/h (1 Bft) 0 min 7,1 km/h (2 Bft)
21.07.2010 08:08 25,2 C 20,7 C 2,7 UV-I 0,1 C 49 % 66 % 3 % 1009,2 hPa 0,0 l/m 2,4 km/h (1 Bft) 0 min 0,0 km/h (0 Bft)
21.07.2010 08:12 25,4 C 20,8 C 2,8 UV-I 0,3 C 49 % 66 % 9 % 1009,2 hPa 0,0 l/m 3,2 km/h (1 Bft) 0 min 6,1 km/h (2 Bft)
21.07.2010 08:16 25,4 C 21,0 C 2,9 UV-I 0,3 C 49 % 65 % 9 % 1009,2 hPa 0,0 l/m 3,2 km/h (1 Bft) 0 min 6,8 km/h (2 Bft)
21.07.2010 08:20 25,4 C 21,2 C 2,9 UV-I 0,3 C 49 % 65 % 9 % 1009,2 hPa 0,0 l/m 3,6 km/h (1 Bft) 0 min 7,7 km/h (2 Bft)
21.07.2010 08:23 25,4 C 21,3 C 3,1 UV-I 1,0 C 49 % 65 % 29 % 1009,2 hPa 0,0 l/m 3,2 km/h (1 Bft) 0 min 3,2 km/h (1 Bft)
21.07.2010 08:26 25,4 C 21,4 C 3,3 UV-I 2,9 C 49 % 64 % 83 % 1009,2 hPa 0,0 l/m 3,2 km/h (1 Bft) 2 min 7,1 km/h (2 Bft)
21.07.2010 08:28 25,4 C 21,5 C 3,3 UV-I 3,6 C 49 % 63 % 100 % 1009,5 hPa 0,0 l/m 4,0 km/h (1 Bft) 2 min 7,1 km/h (2 Bft)
21.07.2010 08:30 25,4 C 21,7 C 3,3 UV-I 3,9 C 49 % 63 % 100 % 1009,5 hPa 0,0 l/m 4,4 km/h (1 Bft) 2 min 12,6 km/h (3 Bft)
21.07.2010 08:32 25,4 C 21,7 C 3,4 UV-I 4,4 C 49 % 62 % 100 % 1009,5 hPa 0,0 l/m 5,2 km/h (1 Bft) 2 min 7,4 km/h (2 Bft)
21.07.2010 08:34 25,4 C 21,8 C 3,4 UV-I 4,6 C 49 % 62 % 100 % 1009,5 hPa 0,0 l/m 6,0 km/h (2 Bft) 2 min 7,4 km/h (2 Bft)
21.07.2010 08:36 25,4 C 21,9 C 3,4 UV-I 4,7 C 49 % 62 % 100 % 1009,5 hPa 0,0 l/m 6,0 km/h (2 Bft) 2 min 5,5 km/h (1 Bft)
21.07.2010 08:38 25,4 C 22,0 C 3,4 UV-I 5,1 C 49 % 62 % 100 % 1009,5 hPa 0,0 l/m 5,6 km/h (1 Bft) 2 min 4,5 km/h (1 Bft)
21.07.2010 08:40 25,4 C 22,1 C 3,4 UV-I 5,2 C 49 % 62 % 100 % 1009,5 hPa 0,0 l/m 6,0 km/h (2 Bft) 2 min 13,8 km/h (3 Bft)
21.07.2010 08:42 25,5 C 22,3 C 4,0 UV-I 5,2 C 49 % 62 % 100 % 1009,5 hPa 0,0 l/m 5,6 km/h (1 Bft) 2 min 9,3 km/h (2 Bft)
21.07.2010 08:44 25,5 C 22,4 C 4,0 UV-I 5,4 C 49 % 61 % 100 % 1009,5 hPa 0,0 l/m 5,2 km/h (1 Bft) 2 min 7,7 km/h (2 Bft)
21.07.2010 08:46 25,5 C 22,5 C 4,7 UV-I 5,3 C 49 % 61 % 100 % 1009,5 hPa 0,0 l/m 5,2 km/h (1 Bft) 2 min 7,7 km/h (2 Bft)
21.07.2010 08:48 25,5 C 22,7 C 4,7 UV-I 5,4 C 49 % 61 % 100 % 1009,6 hPa 0,0 l/m 5,6 km/h (1 Bft) 2 min 7,7 km/h (2 Bft)
21.07.2010 08:50 25,5 C 22,8 C 4,7 UV-I 5,5 C 49 % 61 % 100 % 1009,6 hPa 0,0 l/m 5,2 km/h (1 Bft) 2 min 4,2 km/h (1 Bft)
21.07.2010 08:52 25,6 C 22,9 C 5,0 UV-I 5,5 C 49 % 61 % 100 % 1009,6 hPa 0,0 l/m 4,4 km/h (1 Bft) 2 min 4,2 km/h (1 Bft)
21.07.2010 08:54 25,6 C 23,0 C 5,0 UV-I 5,8 C 49 % 60 % 100 % 1009,6 hPa 0,0 l/m 4,0 km/h (1 Bft) 2 min 3,5 km/h (1 Bft)
21.07.2010 08:56 25,6 C 23,1 C 5,4 UV-I 5,9 C 49 % 61 % 100 % 1009,6 hPa 0,0 l/m 3,2 km/h (1 Bft) 2 min 4,8 km/h (1 Bft)
21.07.2010 09:00 25,6 C 23,5 C 5,4 UV-I 5,8 C 49 % 59 % 100 % 1009,6 hPa 0,0 l/m 3,2 km/h (1 Bft) 2 min 10,0 km/h (2 Bft)
21.07.2010 09:02 25,6 C 23,6 C 5,9 UV-I 5,8 C 49 % 58 % 100 % 1009,6 hPa 0,0 l/m 3,6 km/h (1 Bft) 2 min 8,0 km/h (2 Bft)
21.07.2010 09:04 25,6 C 23,7 C 5,9 UV-I 5,8 C 49 % 58 % 100 % 1009,6 hPa 0,0 l/m 4,0 km/h (1 Bft) 2 min 9,0 km/h (2 Bft)
21.07.2010 09:06 25,6 C 23,7 C 5,7 UV-I 5,8 C 49 % 58 % 100 % 1009,6 hPa 0,0 l/m 4,8 km/h (1 Bft) 2 min 9,0 km/h (2 Bft)
21.07.2010 09:08 25,6 C 23,9 C 5,7 UV-I 5,8 C 49 % 57 % 100 % 1009,5 hPa 0,0 l/m 5,2 km/h (1 Bft) 2 min 10,6 km/h (2 Bft)
21.07.2010 09:10 25,6 C 24,1 C 5,7 UV-I 5,6 C 49 % 57 % 100 % 1009,5 hPa 0,0 l/m 6,0 km/h (2 Bft) 2 min 10,6 km/h (2 Bft)
21.07.2010 09:12 25,7 C 24,3 C 6,6 UV-I 5,4 C 49 % 57 % 100 % 1009,5 hPa 0,0 l/m 6,4 km/h (2 Bft) 2 min 10,9 km/h (2 Bft)
21.07.2010 09:14 25,7 C 24,3 C 6,6 UV-I 5,4 C 49 % 57 % 100 % 1009,5 hPa 0,0 l/m 6,8 km/h (2 Bft) 2 min 10,9 km/h (2 Bft)
21.07.2010 09:16 25,7 C 24,5 C 7,3 UV-I 5,2 C 49 % 56 % 100 % 1009,5 hPa 0,0 l/m 6,8 km/h (2 Bft) 2 min 10,9 km/h (2 Bft)
21.07.2010 09:18 25,7 C 24,4 C 7,3 UV-I 5,3 C 49 % 56 % 100 % 1009,5 hPa 0,0 l/m 6,8 km/h (2 Bft) 2 min 10,9 km/h (2 Bft)
21.07.2010 09:20 25,7 C 24,7 C 7,3 UV-I 5,0 C 49 % 56 % 100 % 1009,5 hPa 0,0 l/m 6,0 km/h (2 Bft) 2 min 7,7 km/h (2 Bft)
21.07.2010 09:22 25,7 C 24,7 C 7,8 UV-I 5,3 C 49 % 56 % 100 % 1009,5 hPa 0,0 l/m 6,0 km/h (2 Bft) 2 min 14,2 km/h (3 Bft)
21.07.2010 09:24 25,8 C 24,8 C 7,8 UV-I 5,4 C 49 % 56 % 100 % 1009,5 hPa 0,0 l/m 5,6 km/h (1 Bft) 2 min 14,2 km/h (3 Bft)
21.07.2010 09:26 25,8 C 25,1 C 9,0 UV-I 5,2 C 49 % 55 % 100 % 1009,5 hPa 0,0 l/m 5,6 km/h (1 Bft) 2 min 7,7 km/h (2 Bft)
21.07.2010 09:28 25,8 C 25,1 C 9,0 UV-I 5,5 C 49 % 55 % 100 % 1009,6 hPa 0,0 l/m 5,6 km/h (1 Bft) 2 min 7,7 km/h (2 Bft)
21.07.2010 09:30 25,8 C 25,2 C 9,0 UV-I 5,4 C 49 % 55 % 100 % 1009,6 hPa 0,0 l/m 5,6 km/h (1 Bft) 2 min 14,2 km/h (3 Bft)
21.07.2010 09:32 25,8 C 25,3 C 9,1 UV-I 5,4 C 49 % 55 % 100 % 1009,6 hPa 0,0 l/m 5,2 km/h (1 Bft) 2 min 4,8 km/h (1 Bft)
21.07.2010 09:34 25,8 C 25,3 C 9,1 UV-I 5,5 C 49 % 55 % 100 % 1009,6 hPa 0,0 l/m 4,4 km/h (1 Bft) 2 min 4,5 km/h (1 Bft)
21.07.2010 09:36 25,8 C 25,4 C 9,4 UV-I 5,4 C 49 % 55 % 100 % 1009,6 hPa 0,0 l/m 3,6 km/h (1 Bft) 2 min 4,5 km/h (1 Bft)
21.07.2010 09:38 25,8 C 25,7 C 9,4 UV-I 5,5 C 49 % 55 % 100 % 1009,6 hPa 0,0 l/m 2,8 km/h (1 Bft) 2 min 0,0 km/h (0 Bft)
21.07.2010 09:40 25,8 C 25,7 C 9,4 UV-I 5,7 C 49 % 55 % 100 % 1009,6 hPa 0,0 l/m 2,0 km/h (1 Bft) 2 min 0,0 km/h (0 Bft)
21.07.2010 09:42 25,9 C 25,9 C 10,1 UV-I 5,7 C 49 % 54 % 100 % 1009,6 hPa 0,0 l/m 2,8 km/h (1 Bft) 2 min 10,0 km/h (2 Bft)
21.07.2010 09:44 25,9 C 26,0 C 10,1 UV-I 5,6 C 49 % 53 % 100 % 1009,6 hPa 0,0 l/m 3,2 km/h (1 Bft) 2 min 10,0 km/h (2 Bft)
21.07.2010 09:46 25,9 C 26,1 C 10,7 UV-I 5,4 C 49 % 53 % 100 % 1009,6 hPa 0,0 l/m 3,6 km/h (1 Bft) 2 min 6,1 km/h (2 Bft)
21.07.2010 09:48 25,9 C 26,1 C 10,7 UV-I 5,3 C 49 % 53 % 100 % 1009,6 hPa 0,0 l/m 4,4 km/h (1 Bft) 2 min 6,1 km/h (2 Bft)
21.07.2010 09:50 25,9 C 26,3 C 10,7 UV-I 5,3 C 49 % 53 % 100 % 1009,6 hPa 0,0 l/m 4,8 km/h (1 Bft) 2 min 3,5 km/h (1 Bft)
21.07.2010 09:52 26,0 C 26,3 C 10,6 UV-I 5,3 C 49 % 52 % 100 % 1009,6 hPa 0,0 l/m 5,2 km/h (1 Bft) 2 min 10,6 km/h (2 Bft)
21.07.2010 09:54 25,9 C 26,3 C 10,6 UV-I 5,1 C 49 % 53 % 100 % 1009,6 hPa 0,0 l/m 4,4 km/h (1 Bft) 2 min 10,6 km/h (2 Bft)
21.07.2010 09:56 26,0 C 26,4 C 10,6 UV-I 5,2 C 49 % 52 % 100 % 1009,6 hPa 0,0 l/m 4,4 km/h (1 Bft) 2 min 4,8 km/h (1 Bft)
21.07.2010 09:58 26,0 C 26,4 C 10,6 UV-I 5,3 C 49 % 52 % 100 % 1009,6 hPa 0,0 l/m 3,6 km/h (1 Bft) 2 min 4,5 km/h (1 Bft)
21.07.2010 10:00 26,0 C 26,4 C 10,6 UV-I 5,5 C 49 % 52 % 100 % 1009,6 hPa 0,0 l/m 3,6 km/h (1 Bft) 2 min 4,2 km/h (1 Bft)
21.07.2010 10:02 26,0 C 26,5 C 10,8 UV-I 5,5 C 48 % 51 % 100 % 1009,6 hPa 0,0 l/m 3,2 km/h (1 Bft) 2 min 3,5 km/h (1 Bft)
21.07.2010 10:04 26,0 C 26,6 C 10,8 UV-I 5,5 C 49 % 50 % 100 % 1009,6 hPa 0,0 l/m 3,2 km/h (1 Bft) 2 min 3,2 km/h (1 Bft)
21.07.2010 10:06 26,0 C 26,7 C 11,7 UV-I 5,6 C 49 % 50 % 100 % 1009,6 hPa 0,0 l/m 2,4 km/h (1 Bft) 2 min 0,0 km/h (0 Bft)
21.07.2010 10:08 26,0 C 26,8 C 11,7 UV-I 5,8 C 48 % 50 % 100 % 1010,1 hPa 0,0 l/m 2,8 km/h (1 Bft) 2 min 7,7 km/h (2 Bft)
21.07.2010 10:10 26,0 C 26,9 C 11,7 UV-I 5,5 C 48 % 50 % 100 % 1010,1 hPa 0,0 l/m 2,8 km/h (1 Bft) 2 min 7,7 km/h (2 Bft)
21.07.2010 10:12 26,0 C 26,9 C 11,3 UV-I 5,4 C 48 % 50 % 100 % 1010,1 hPa 0,0 l/m 3,2 km/h (1 Bft) 2 min 7,4 km/h (2 Bft)
21.07.2010 10:14 26,0 C 27,0 C 11,3 UV-I 5,4 C 48 % 49 % 100 % 1010,1 hPa 0,0 l/m 3,2 km/h (1 Bft) 2 min 5,8 km/h (2 Bft)
21.07.2010 10:16 26,0 C 27,0 C 11,7 UV-I 5,4 C 48 % 50 % 100 % 1010,1 hPa 0,0 l/m 2,8 km/h (1 Bft) 2 min 5,8 km/h (2 Bft)
21.07.2010 10:18 26,0 C 27,1 C 11,7 UV-I 5,4 C 48 % 48 % 100 % 1010,1 hPa 0,0 l/m 3,2 km/h (1 Bft) 2 min 6,4 km/h (2 Bft)
21.07.2010 10:20 26,1 C 27,3 C 11,7 UV-I 5,3 C 48 % 48 % 100 % 1010,1 hPa 0,0 l/m 3,2 km/h (1 Bft) 2 min 7,1 km/h (2 Bft)
21.07.2010 10:22 26,1 C 27,3 C 12,6 UV-I 5,2 C 48 % 48 % 100 % 1010,1 hPa 0,0 l/m 3,6 km/h (1 Bft) 2 min 7,1 km/h (2 Bft)
21.07.2010 10:24 26,1 C 27,2 C 12,6 UV-I 5,2 C 48 % 48 % 100 % 1010,1 hPa 0,0 l/m 4,4 km/h (1 Bft) 2 min 7,7 km/h (2 Bft)
21.07.2010 10:26 26,1 C 27,3 C 12,2 UV-I 5,1 C 48 % 48 % 100 % 1010,1 hPa 0,0 l/m 5,2 km/h (1 Bft) 2 min 9,7 km/h (2 Bft)
21.07.2010 10:28 26,1 C 27,4 C 12,2 UV-I 5,0 C 48 % 48 % 100 % 1010,3 hPa 0,0 l/m 6,0 km/h (2 Bft) 2 min 10,6 km/h (2 Bft)
21.07.2010 10:30 26,1 C 27,5 C 12,2 UV-I 5,0 C 48 % 48 % 100 % 1010,3 hPa 0,0 l/m 6,0 km/h (2 Bft) 2 min 10,6 km/h (2 Bft)
21.07.2010 10:32 26,1 C 27,4 C 13,3 UV-I 5,3 C 48 % 47 % 100 % 1010,3 hPa 0,0 l/m 6,4 km/h (2 Bft) 2 min 9,7 km/h (2 Bft)
21.07.2010 10:34 26,1 C 27,4 C 13,3 UV-I 5,5 C 48 % 46 % 100 % 1010,3 hPa 0,0 l/m 6,0 km/h (2 Bft) 2 min 9,7 km/h (2 Bft)
21.07.2010 10:36 26,2 C 27,5 C 13,9 UV-I 5,5 C 48 % 47 % 100 % 1010,3 hPa 0,0 l/m 5,6 km/h (1 Bft) 2 min 4,5 km/h (1 Bft)
21.07.2010 10:38 26,1 C 27,6 C 13,9 UV-I 5,7 C 48 % 48 % 100 % 1010,3 hPa 0,0 l/m 4,4 km/h (1 Bft) 2 min 3,9 km/h (1 Bft)
21.07.2010 10:40 26,2 C 27,7 C 13,9 UV-I 5,9 C 48 % 47 % 100 % 1010,3 hPa 0,0 l/m 4,4 km/h (1 Bft) 2 min 12,6 km/h (3 Bft)
21.07.2010 10:42 26,2 C 27,7 C 14,2 UV-I 6,1 C 48 % 46 % 100 % 1010,3 hPa 0,0 l/m 4,8 km/h (1 Bft) 2 min 12,6 km/h (3 Bft)
21.07.2010 10:44 26,2 C 27,7 C 14,2 UV-I 6,1 C 48 % 47 % 100 % 1010,3 hPa 0,0 l/m 4,4 km/h (1 Bft) 2 min 4,5 km/h (1 Bft)
21.07.2010 10:46 26,2 C 27,9 C 14,2 UV-I 6,0 C 48 % 47 % 100 % 1010,3 hPa 0,0 l/m 4,0 km/h (1 Bft) 2 min 0,0 km/h (0 Bft)
21.07.2010 10:50 26,2 C 28,1 C 14,2 UV-I 6,3 C 48 % 47 % 100 % 1010,0 hPa 0,0 l/m 4,0 km/h (1 Bft) 2 min 3,9 km/h (1 Bft)
21.07.2010 10:52 26,2 C 28,0 C 14,7 UV-I 6,8 C 48 % 46 % 100 % 1010,0 hPa 0,0 l/m 3,2 km/h (1 Bft) 2 min 3,9 km/h (1 Bft)
21.07.2010 10:54 26,2 C 28,1 C 14,7 UV-I 6,7 C 48 % 46 % 100 % 1010,0 hPa 0,0 l/m 3,2 km/h (1 Bft) 2 min 5,1 km/h (1 Bft)
21.07.2010 10:56 26,2 C 28,2 C 14,6 UV-I 6,6 C 48 % 47 % 100 % 1010,0 hPa 0,0 l/m 3,6 km/h (1 Bft) 2 min 5,1 km/h (1 Bft)
21.07.2010 10:58 26,2 C 28,2 C 14,6 UV-I 6,6 C 48 % 47 % 100 % 1010,0 hPa 0,0 l/m 3,6 km/h (1 Bft) 2 min 3,5 km/h (1 Bft)
21.07.2010 11:00 26,3 C 28,3 C 14,6 UV-I 6,7 C 48 % 46 % 100 % 1010,0 hPa 0,0 l/m 3,6 km/h (1 Bft) 2 min 3,2 km/h (1 Bft)
21.07.2010 11:02 26,3 C 28,4 C 14,6 UV-I 6,6 C 48 % 45 % 100 % 1010,0 hPa 0,0 l/m 3,6 km/h (1 Bft) 2 min 3,2 km/h (1 Bft)
21.07.2010 11:04 26,3 C 28,5 C 14,6 UV-I 6,5 C 48 % 46 % 100 % 1010,0 hPa 0,0 l/m 3,6 km/h (1 Bft) 2 min 4,5 km/h (1 Bft)
21.07.2010 11:06 26,3 C 28,5 C 14,0 UV-I 6,6 C 48 % 46 % 100 % 1010,0 hPa 0,0 l/m 3,2 km/h (1 Bft) 2 min 7,4 km/h (2 Bft)
21.07.2010 11:08 26,3 C 28,7 C 14,0 UV-I 6,5 C 48 % 47 % 100 % 1010,1 hPa 0,0 l/m 3,6 km/h (1 Bft) 2 min 7,4 km/h (2 Bft)
21.07.2010 11:10 26,3 C 28,7 C 14,0 UV-I 6,6 C 48 % 45 % 100 % 1010,1 hPa 0,0 l/m 3,6 km/h (1 Bft) 2 min 5,8 km/h (2 Bft)
21.07.2010 11:12 26,2 C 28,7 C 13,8 UV-I 6,6 C 48 % 45 % 100 % 1010,1 hPa 0,0 l/m 3,6 km/h (1 Bft) 2 min 8,0 km/h (2 Bft)
21.07.2010 11:16 26,2 C 28,7 C 13,4 UV-I 6,3 C 48 % 46 % 100 % 1010,1 hPa 0,0 l/m 4,0 km/h (1 Bft) 2 min 8,0 km/h (2 Bft)
21.07.2010 11:18 26,4 C 28,8 C 13,4 UV-I 6,2 C 48 % 47 % 100 % 1010,1 hPa 0,0 l/m 4,0 km/h (1 Bft) 2 min 4,8 km/h (1 Bft)
21.07.2010 11:20 26,4 C 28,9 C 13,4 UV-I 6,0 C 48 % 46 % 100 % 1010,1 hPa 0,0 l/m 4,4 km/h (1 Bft) 2 min 7,4 km/h (2 Bft)
21.07.2010 11:22 26,4 C 28,9 C 12,7 UV-I 5,8 C 48 % 46 % 100 % 1010,1 hPa 0,0 l/m 4,4 km/h (1 Bft) 2 min 7,4 km/h (2 Bft)
21.07.2010 11:24 26,4 C 28,9 C 12,7 UV-I 5,8 C 48 % 46 % 100 % 1010,1 hPa 0,0 l/m 4,0 km/h (1 Bft) 2 min 5,1 km/h (1 Bft)
21.07.2010 11:26 26,4 C 29,1 C 13,3 UV-I 5,7 C 48 % 46 % 100 % 1010,1 hPa 0,0 l/m 4,0 km/h (1 Bft) 2 min 3,9 km/h (1 Bft)
21.07.2010 11:28 26,4 C 29,1 C 13,3 UV-I 5,9 C 48 % 46 % 100 % 1009,9 hPa 0,0 l/m 3,2 km/h (1 Bft) 2 min 3,9 km/h (1 Bft)
21.07.2010 11:30 26,4 C 29,3 C 13,3 UV-I 5,9 C 48 % 46 % 100 % 1009,9 hPa 0,0 l/m 2,4 km/h (1 Bft) 2 min 5,1 km/h (1 Bft)
21.07.2010 11:36 26,4 C 29,4 C 12,9 UV-I 6,1 C 48 % 45 % 100 % 1009,9 hPa 0,0 l/m 3,2 km/h (1 Bft) 2 min 5,1 km/h (1 Bft)
21.07.2010 11:38 26,4 C 29,4 C 12,9 UV-I 6,4 C 48 % 45 % 100 % 1009,9 hPa 0,0 l/m 3,2 km/h (1 Bft) 2 min 0,0 km/h (0 Bft)
21.07.2010 11:42 26,5 C 29,5 C 13,1 UV-I 7,0 C 48 % 45 % 100 % 1009,9 hPa 0,0 l/m 4,0 km/h (1 Bft) 2 min 4,8 km/h (1 Bft)
21.07.2010 11:44 26,5 C 29,7 C 13,1 UV-I 6,7 C 48 % 45 % 100 % 1009,9 hPa 0,0 l/m 3,6 km/h (1 Bft) 2 min 7,4 km/h (2 Bft)
21.07.2010 11:46 26,5 C 29,5 C 9,9 UV-I 6,6 C 48 % 44 % 100 % 1009,9 hPa 0,0 l/m 4,0 km/h (1 Bft) 2 min 7,4 km/h (2 Bft)
21.07.2010 11:48 26,5 C 29,5 C 9,9 UV-I 6,0 C 48 % 44 % 100 % 1010,4 hPa 0,0 l/m 4,4 km/h (1 Bft) 2 min 7,4 km/h (2 Bft)
21.07.2010 11:50 26,5 C 29,4 C 9,9 UV-I 5,3 C 48 % 45 % 100 % 1010,4 hPa 0,0 l/m 4,4 km/h (1 Bft) 2 min 7,4 km/h (2 Bft)
21.07.2010 11:52 26,6 C 29,5 C 8,3 UV-I 5,2 C 48 % 46 % 100 % 1010,4 hPa 0,0 l/m 4,0 km/h (1 Bft) 2 min 4,2 km/h (1 Bft)
21.07.2010 11:54 26,6 C 29,5 C 8,3 UV-I 5,4 C 48 % 45 % 100 % 1010,4 hPa 0,0 l/m 4,4 km/h (1 Bft) 2 min 14,2 km/h (3 Bft)
21.07.2010 11:56 26,6 C 29,5 C 9,5 UV-I 5,4 C 48 % 44 % 100 % 1010,4 hPa 0,0 l/m 4,4 km/h (1 Bft) 2 min 14,2 km/h (3 Bft)
21.07.2010 11:58 26,6 C 29,5 C 9,5 UV-I 4,9 C 48 % 44 % 100 % 1010,4 hPa 0,0 l/m 4,8 km/h (1 Bft) 2 min 8,4 km/h (2 Bft)
21.07.2010 12:00 26,6 C 29,3 C 9,5 UV-I 4,8 C 48 % 44 % 100 % 1010,4 hPa 0,0 l/m 4,8 km/h (1 Bft) 2 min 8,4 km/h (2 Bft)
21.07.2010 12:02 26,6 C 29,3 C 8,8 UV-I 4,7 C 48 % 45 % 100 % 1010,4 hPa 0,0 l/m 5,2 km/h (1 Bft) 2 min 8,4 km/h (2 Bft)
21.07.2010 12:04 26,6 C 29,3 C 8,8 UV-I 4,7 C 48 % 45 % 100 % 1010,4 hPa 0,0 l/m 5,6 km/h (1 Bft) 2 min 5,8 km/h (2 Bft)
21.07.2010 12:06 26,7 C 29,3 C 11,0 UV-I 4,7 C 48 % 45 % 100 % 1010,4 hPa 0,0 l/m 5,6 km/h (1 Bft) 2 min 6,4 km/h (2 Bft)
21.07.2010 12:08 26,7 C 29,3 C 11,0 UV-I 4,7 C 48 % 44 % 100 % 1010,8 hPa 0,0 l/m 5,2 km/h (1 Bft) 2 min 12,2 km/h (2 Bft)
21.07.2010 12:10 26,7 C 29,2 C 11,0 UV-I 4,7 C 48 % 46 % 100 % 1010,8 hPa 0,0 l/m 5,2 km/h (1 Bft) 2 min 12,2 km/h (2 Bft)
21.07.2010 12:12 26,7 C 29,3 C 9,3 UV-I 4,3 C 48 % 45 % 100 % 1010,8 hPa 0,0 l/m 5,6 km/h (1 Bft) 2 min 5,8 km/h (2 Bft)
21.07.2010 12:14 26,7 C 29,1 C 9,3 UV-I 4,1 C 48 % 45 % 100 % 1010,8 hPa 0,0 l/m 6,0 km/h (2 Bft) 2 min 5,8 km/h (2 Bft)
21.07.2010 12:16 26,8 C 29,1 C 8,4 UV-I 3,7 C 48 % 45 % 100 % 1010,8 hPa 0,0 l/m 5,6 km/h (1 Bft) 2 min 5,8 km/h (2 Bft)
21.07.2010 12:18 26,8 C 28,9 C 8,4 UV-I 3,8 C 48 % 46 % 100 % 1010,8 hPa 0,0 l/m 4,8 km/h (1 Bft) 2 min 5,8 km/h (2 Bft)
21.07.2010 12:22 26,8 C 29,0 C 10,9 UV-I 4,5 C 48 % 46 % 100 % 1010,8 hPa 0,0 l/m 4,4 km/h (1 Bft) 2 min 7,1 km/h (2 Bft)
21.07.2010 12:26 26,8 C 29,1 C 9,7 UV-I 4,5 C 48 % 46 % 100 % 1010,8 hPa 0,0 l/m 4,0 km/h (1 Bft) 2 min 7,1 km/h (2 Bft)
21.07.2010 12:30 26,8 C 29,2 C 9,7 UV-I 4,6 C 48 % 46 % 100 % 1010,8 hPa 0,0 l/m 3,2 km/h (1 Bft) 2 min 5,1 km/h (1 Bft)
21.07.2010 12:32 26,8 C 29,3 C 11,1 UV-I 4,9 C 48 % 45 % 100 % 1010,8 hPa 0,0 l/m 3,6 km/h (1 Bft) 2 min 11,6 km/h (2 Bft)
21.07.2010 12:34 26,8 C 29,2 C 11,1 UV-I 5,1 C 48 % 45 % 100 % 1010,8 hPa 0,0 l/m 3,6 km/h (1 Bft) 2 min 11,6 km/h (2 Bft)
21.07.2010 12:36 26,8 C 29,3 C 9,7 UV-I 4,8 C 48 % 46 % 100 % 1010,8 hPa 0,0 l/m 2,8 km/h (1 Bft) 2 min 4,5 km/h (1 Bft)
21.07.2010 12:40 26,9 C 29,4 C 9,7 UV-I 4,8 C 48 % 45 % 100 % 1010,8 hPa 0,0 l/m 4,0 km/h (1 Bft) 2 min 3,5 km/h (1 Bft)
21.07.2010 12:42 26,9 C 29,4 C 9,3 UV-I 4,8 C 48 % 46 % 100 % 1010,8 hPa 0,0 l/m 4,0 km/h (1 Bft) 2 min 5,5 km/h (1 Bft)
21.07.2010 12:44 26,9 C 29,5 C 9,3 UV-I 4,9 C 48 % 45 % 100 % 1010,8 hPa 0,0 l/m 4,4 km/h (1 Bft) 2 min 11,6 km/h (2 Bft)
21.07.2010 12:46 26,9 C 29,5 C 10,2 UV-I 5,0 C 48 % 44 % 100 % 1010,8 hPa 0,0 l/m 5,2 km/h (1 Bft) 2 min 11,6 km/h (2 Bft)
21.07.2010 12:48 26,9 C 29,5 C 10,2 UV-I 5,0 C 48 % 43 % 100 % 1011,0 hPa 0,0 l/m 5,6 km/h (1 Bft) 2 min 9,7 km/h (2 Bft)
21.07.2010 12:50 26,9 C 29,4 C 10,2 UV-I 4,6 C 48 % 44 % 100 % 1011,0 hPa 0,0 l/m 5,2 km/h (1 Bft) 2 min 9,7 km/h (2 Bft)
21.07.2010 12:52 27,0 C 29,5 C 8,8 UV-I 4,2 C 48 % 44 % 100 % 1011,0 hPa 0,0 l/m 6,0 km/h (2 Bft) 2 min 9,3 km/h (2 Bft)
21.07.2010 12:54 26,9 C 29,5 C 8,8 UV-I 4,4 C 48 % 45 % 100 % 1011,0 hPa 0,0 l/m 5,6 km/h (1 Bft) 2 min 10,0 km/h (2 Bft)
21.07.2010 12:56 27,0 C 29,5 C 11,3 UV-I 4,8 C 48 % 45 % 100 % 1011,0 hPa 0,0 l/m 4,8 km/h (1 Bft) 2 min 10,0 km/h (2 Bft)
21.07.2010 12:58 27,0 C 29,6 C 11,3 UV-I 5,0 C 48 % 45 % 100 % 1011,0 hPa 0,0 l/m 5,2 km/h (1 Bft) 2 min 4,5 km/h (1 Bft)
21.07.2010 13:00 27,0 C 29,8 C 11,3 UV-I 5,1 C 48 % 44 % 100 % 1011,0 hPa 0,0 l/m 4,8 km/h (1 Bft) 2 min 6,4 km/h (2 Bft)
21.07.2010 13:02 27,0 C 30,0 C 11,2 UV-I 5,4 C 48 % 43 % 100 % 1011,0 hPa 0,0 l/m 4,8 km/h (1 Bft) 2 min 10,0 km/h (2 Bft)
21.07.2010 13:06 27,0 C 30,1 C 10,6 UV-I 5,5 C 48 % 44 % 100 % 1011,0 hPa 0,0 l/m 5,2 km/h (1 Bft) 2 min 10,0 km/h (2 Bft)
21.07.2010 13:08 27,0 C 30,1 C 10,6 UV-I 5,7 C 48 % 44 % 100 % 1010,8 hPa 0,0 l/m 4,4 km/h (1 Bft) 2 min 5,8 km/h (2 Bft)
21.07.2010 13:10 27,0 C 30,3 C 10,6 UV-I 5,7 C 48 % 44 % 100 % 1010,8 hPa 0,0 l/m 4,4 km/h (1 Bft) 2 min 3,2 km/h (1 Bft)
21.07.2010 13:12 27,1 C 30,3 C 10,8 UV-I 6,0 C 48 % 41 % 100 % 1010,8 hPa 0,0 l/m 4,4 km/h (1 Bft) 2 min 4,2 km/h (1 Bft)
21.07.2010 13:14 27,1 C 30,3 C 10,8 UV-I 6,0 C 48 % 42 % 100 % 1010,8 hPa 0,0 l/m 3,6 km/h (1 Bft) 2 min 4,2 km/h (1 Bft)
21.07.2010 13:18 27,1 C 30,6 C 10,3 UV-I 6,0 C 48 % 42 % 100 % 1010,8 hPa 0,0 l/m 3,2 km/h (1 Bft) 2 min 5,1 km/h (1 Bft)
21.07.2010 13:20 27,1 C 30,8 C 10,3 UV-I 5,9 C 48 % 41 % 100 % 1010,8 hPa 0,0 l/m 3,6 km/h (1 Bft) 2 min 5,5 km/h (1 Bft)
21.07.2010 13:22 27,1 C 31,0 C 10,1 UV-I 5,6 C 47 % 40 % 100 % 1010,8 hPa 0,0 l/m 3,6 km/h (1 Bft) 2 min 5,5 km/h (1 Bft)
21.07.2010 13:24 27,1 C 31,0 C 10,1 UV-I 5,8 C 47 % 40 % 100 % 1010,8 hPa 0,0 l/m 4,0 km/h (1 Bft) 2 min 13,2 km/h (3 Bft)
21.07.2010 13:26 27,2 C 31,1 C 11,3 UV-I 5,8 C 47 % 39 % 100 % 1010,8 hPa 0,0 l/m 5,2 km/h (1 Bft) 2 min 13,2 km/h (3 Bft)
21.07.2010 13:28 27,2 C 31,1 C 11,3 UV-I 5,9 C 47 % 38 % 100 % 1010,9 hPa 0,0 l/m 6,0 km/h (2 Bft) 2 min 8,4 km/h (2 Bft)
21.07.2010 13:30 27,2 C 31,1 C 11,3 UV-I 5,9 C 47 % 40 % 100 % 1010,9 hPa 0,0 l/m 6,4 km/h (2 Bft) 2 min 8,4 km/h (2 Bft)
21.07.2010 13:34 27,2 C 31,1 C 11,3 UV-I 5,9 C 47 % 38 % 100 % 1010,9 hPa 0,0 l/m 7,6 km/h (2 Bft) 2 min 12,9 km/h (3 Bft)
21.07.2010 13:36 27,2 C 31,0 C 10,8 UV-I 5,6 C 47 % 37 % 100 % 1010,9 hPa 0,0 l/m 7,6 km/h (2 Bft) 2 min 12,6 km/h (3 Bft)
21.07.2010 13:38 27,3 C 31,1 C 10,8 UV-I 5,4 C 47 % 38 % 100 % 1010,9 hPa 0,0 l/m 7,2 km/h (2 Bft) 2 min 12,6 km/h (3 Bft)
21.07.2010 13:40 27,3 C 31,2 C 10,8 UV-I 5,4 C 47 % 38 % 100 % 1010,9 hPa 0,0 l/m 7,2 km/h (2 Bft) 2 min 8,4 km/h (2 Bft)
21.07.2010 13:42 27,2 C 31,2 C 11,4 UV-I 5,4 C 47 % 37 % 100 % 1010,9 hPa 0,0 l/m 8,4 km/h (2 Bft) 2 min 8,4 km/h (2 Bft)
21.07.2010 13:44 27,2 C 31,2 C 11,4 UV-I 5,2 C 47 % 38 % 100 % 1010,9 hPa 0,0 l/m 8,4 km/h (2 Bft) 2 min 7,4 km/h (2 Bft)
21.07.2010 13:46 27,4 C 31,2 C 8,6 UV-I 4,7 C 47 % 37 % 100 % 1010,9 hPa 0,0 l/m 8,0 km/h (2 Bft) 2 min 8,7 km/h (2 Bft)
21.07.2010 13:48 27,4 C 31,1 C 8,6 UV-I 4,1 C 47 % 38 % 100 % 1011,0 hPa 0,0 l/m 7,6 km/h (2 Bft) 2 min 8,7 km/h (2 Bft)
21.07.2010 13:50 27,4 C 31,0 C 8,6 UV-I 3,9 C 47 % 38 % 100 % 1011,0 hPa 0,0 l/m 7,6 km/h (2 Bft) 2 min 18,7 km/h (3 Bft)
21.07.2010 13:52 27,4 C 30,8 C 7,3 UV-I 3,7 C 47 % 38 % 100 % 1011,0 hPa 0,0 l/m 6,4 km/h (2 Bft) 2 min 6,4 km/h (2 Bft)
21.07.2010 13:54 27,4 C 30,8 C 7,3 UV-I 3,4 C 47 % 38 % 97 % 1011,0 hPa 0,0 l/m 5,6 km/h (1 Bft) 2 min 6,1 km/h (2 Bft)
21.07.2010 13:56 27,5 C 30,8 C 6,9 UV-I 3,1 C 47 % 38 % 89 % 1011,0 hPa 0,0 l/m 4,8 km/h (1 Bft) 2 min 12,2 km/h (2 Bft)
21.07.2010 13:58 27,5 C 30,6 C 6,9 UV-I 3,1 C 47 % 38 % 89 % 1011,0 hPa 0,0 l/m 4,8 km/h (1 Bft) 2 min 6,4 km/h (2 Bft)
21.07.2010 14:00 27,5 C 30,6 C 6,9 UV-I 2,9 C 47 % 38 % 83 % 1011,0 hPa 0,0 l/m 5,2 km/h (1 Bft) 2 min 6,8 km/h (2 Bft)
21.07.2010 14:04 27,5 C 30,4 C 6,2 UV-I 2,5 C 46 % 39 % 71 % 1011,0 hPa 0,0 l/m 6,0 km/h (2 Bft) 0 min 8,0 km/h (2 Bft)
21.07.2010 14:06 27,6 C 30,4 C 6,0 UV-I 2,4 C 46 % 38 % 69 % 1011,0 hPa 0,0 l/m 6,0 km/h (2 Bft) 0 min 5,1 km/h (1 Bft)
21.07.2010 14:08 27,6 C 30,2 C 6,0 UV-I 2,4 C 46 % 39 % 69 % 1011,2 hPa 0,0 l/m 5,6 km/h (1 Bft) 0 min 5,1 km/h (1 Bft)
21.07.2010 14:10 27,6 C 30,1 C 6,0 UV-I 2,3 C 46 % 38 % 66 % 1011,2 hPa 0,0 l/m 6,4 km/h (2 Bft) 0 min 14,5 km/h (3 Bft)
21.07.2010 14:12 27,6 C 30,0 C 4,9 UV-I 2,1 C 46 % 39 % 60 % 1011,2 hPa 0,0 l/m 6,8 km/h (2 Bft) 0 min 4,2 km/h (1 Bft)
21.07.2010 14:14 27,6 C 29,9 C 4,9 UV-I 1,9 C 46 % 39 % 54 % 1011,2 hPa 0,0 l/m 6,8 km/h (2 Bft) 0 min 7,4 km/h (2 Bft)
21.07.2010 14:22 27,6 C 29,7 C 5,3 UV-I 1,6 C 46 % 41 % 46 % 1011,2 hPa 0,0 l/m 6,0 km/h (2 Bft) 0 min 7,4 km/h (2 Bft)
21.07.2010 14:24 27,6 C 29,7 C 5,3 UV-I 1,6 C 46 % 41 % 46 % 1011,2 hPa 0,0 l/m 5,6 km/h (1 Bft) 0 min 4,5 km/h (1 Bft)
21.07.2010 14:26 27,6 C 29,7 C 5,2 UV-I 1,6 C 46 % 42 % 46 % 1011,2 hPa 0,0 l/m 5,6 km/h (1 Bft) 0 min 10,9 km/h (2 Bft)
21.07.2010 14:28 27,6 C 29,6 C 5,2 UV-I 1,7 C 46 % 41 % 49 % 1011,2 hPa 0,0 l/m 6,0 km/h (2 Bft) 0 min 14,8 km/h (3 Bft)
21.07.2010 14:30 27,6 C 29,5 C 5,2 UV-I 1,6 C 46 % 42 % 46 % 1011,2 hPa 0,0 l/m 5,6 km/h (1 Bft) 0 min 14,8 km/h (3 Bft)
21.07.2010 14:32 27,6 C 29,4 C 4,4 UV-I 1,6 C 46 % 41 % 46 % 1011,2 hPa 0,0 l/m 6,0 km/h (2 Bft) 0 min 6,1 km/h (2 Bft)
21.07.2010 14:34 27,6 C 29,5 C 4,4 UV-I 1,4 C 46 % 42 % 40 % 1011,2 hPa 0,0 l/m 6,4 km/h (2 Bft) 0 min 6,1 km/h (2 Bft)
21.07.2010 14:36 27,6 C 29,5 C 3,7 UV-I 1,2 C 46 % 43 % 34 % 1011,2 hPa 0,0 l/m 5,6 km/h (1 Bft) 0 min 0,0 km/h (0 Bft)
21.07.2010 14:38 27,6 C 29,3 C 3,7 UV-I 1,3 C 46 % 42 % 37 % 1011,2 hPa 0,0 l/m 5,2 km/h (1 Bft) 0 min 4,5 km/h (1 Bft)
21.07.2010 14:40 27,6 C 29,3 C 3,7 UV-I 1,1 C 46 % 43 % 31 % 1011,2 hPa 0,0 l/m 4,8 km/h (1 Bft) 0 min 8,7 km/h (2 Bft)
21.07.2010 14:44 27,6 C 29,1 C 2,2 UV-I 0,8 C 46 % 43 % 23 % 1011,2 hPa 0,0 l/m 5,2 km/h (1 Bft) 0 min 6,1 km/h (2 Bft)
21.07.2010 14:50 27,6 C 29,1 C 2,5 UV-I 0,4 C 46 % 42 % 11 % 1011,3 hPa 0,0 l/m 6,0 km/h (2 Bft) 0 min 10,0 km/h (2 Bft)
21.07.2010 14:52 27,6 C 29,1 C 3,0 UV-I 0,3 C 46 % 43 % 9 % 1011,3 hPa 0,0 l/m 5,6 km/h (1 Bft) 0 min 10,0 km/h (2 Bft)
21.07.2010 14:54 27,6 C 28,9 C 3,0 UV-I 0,5 C 46 % 43 % 14 % 1011,3 hPa 0,0 l/m 5,6 km/h (1 Bft) 0 min 10,0 km/h (2 Bft)
21.07.2010 14:56 27,6 C 28,9 C 2,9 UV-I 0,5 C 46 % 43 % 14 % 1011,3 hPa 0,0 l/m 5,6 km/h (1 Bft) 0 min 10,0 km/h (2 Bft)
21.07.2010 14:58 27,6 C 28,8 C 2,9 UV-I 0,5 C 46 % 43 % 14 % 1011,3 hPa 0,0 l/m 5,6 km/h (1 Bft) 0 min 12,9 km/h (3 Bft)
21.07.2010 15:00 27,6 C 28,9 C 2,9 UV-I 0,3 C 46 % 44 % 9 % 1011,3 hPa 0,0 l/m 6,0 km/h (2 Bft) 0 min 6,1 km/h (2 Bft)
21.07.2010 15:04 27,6 C 28,8 C 2,8 UV-I 0,3 C 46 % 44 % 9 % 1011,3 hPa 0,0 l/m 6,0 km/h (2 Bft) 0 min 9,3 km/h (2 Bft)
21.07.2010 15:08 27,6 C 28,7 C 2,9 UV-I 0,4 C 46 % 44 % 11 % 1011,3 hPa 0,0 l/m 4,4 km/h (1 Bft) 0 min 6,1 km/h (2 Bft)
21.07.2010 15:10 27,6 C 28,6 C 2,9 UV-I 0,4 C 46 % 45 % 11 % 1011,3 hPa 0,0 l/m 3,6 km/h (1 Bft) 0 min 3,2 km/h (1 Bft)
21.07.2010 15:12 27,6 C 28,6 C 2,2 UV-I 0,3 C 46 % 45 % 9 % 1011,3 hPa 0,0 l/m 2,8 km/h (1 Bft) 0 min 3,9 km/h (1 Bft)
21.07.2010 15:16 27,6 C 28,5 C 2,2 UV-I 0,2 C 46 % 45 % 6 % 1011,3 hPa 0,0 l/m 4,0 km/h (1 Bft) 0 min 9,3 km/h (2 Bft)
21.07.2010 15:18 27,6 C 28,5 C 2,2 UV-I 0,1 C 46 % 45 % 3 % 1011,3 hPa 0,0 l/m 4,4 km/h (1 Bft) 0 min 9,3 km/h (2 Bft)
21.07.2010 15:22 27,6 C 28,3 C 2,8 UV-I 0,2 C 46 % 46 % 6 % 1011,3 hPa 0,0 l/m 4,8 km/h (1 Bft) 0 min 9,0 km/h (2 Bft)
21.07.2010 15:24 27,5 C 28,3 C 2,8 UV-I 0,2 C 46 % 46 % 6 % 1011,3 hPa 0,0 l/m 5,2 km/h (1 Bft) 0 min 3,9 km/h (1 Bft)
21.07.2010 15:30 27,5 C 28,2 C 2,7 UV-I 0,2 C 46 % 47 % 6 % 1011,6 hPa 0,0 l/m 4,8 km/h (1 Bft) 0 min 9,7 km/h (2 Bft)
21.07.2010 15:32 27,5 C 28,1 C 1,3 UV-I 0,2 C 46 % 46 % 6 % 1011,6 hPa 0,0 l/m 5,2 km/h (1 Bft) 0 min 7,7 km/h (2 Bft)
21.07.2010 15:40 27,5 C 27,9 C 1,2 UV-I 0,0 C 46 % 46 % 0 % 1011,6 hPa 0,0 l/m 5,6 km/h (1 Bft) 0 min 12,2 km/h (2 Bft)
21.07.2010 15:48 27,5 C 27,7 C 2,2 UV-I 0,1 C 46 % 47 % 3 % 1011,8 hPa 0,0 l/m 6,8 km/h (2 Bft) 0 min 9,0 km/h (2 Bft)
21.07.2010 15:50 27,5 C 27,7 C 2,2 UV-I 0,1 C 46 % 47 % 3 % 1011,8 hPa 0,0 l/m 6,4 km/h (2 Bft) 0 min 20,3 km/h (4 Bft)
21.07.2010 15:54 27,5 C 27,6 C 1,0 UV-I 0,0 C 46 % 48 % 0 % 1011,8 hPa 0,0 l/m 5,2 km/h (1 Bft) 0 min 4,2 km/h (1 Bft)
21.07.2010 15:56 27,5 C 27,5 C 1,0 UV-I 0,0 C 47 % 48 % 0 % 1011,8 hPa 0,0 l/m 5,2 km/h (1 Bft) 0 min 5,8 km/h (2 Bft)
21.07.2010 16:02 27,4 C 27,5 C 2,0 UV-I 0,0 C 47 % 48 % 0 % 1011,8 hPa 0,0 l/m 4,0 km/h (1 Bft) 0 min 8,7 km/h (2 Bft)
21.07.2010 16:06 27,5 C 27,5 C 3,2 UV-I 0,1 C 47 % 48 % 3 % 1011,8 hPa 0,0 l/m 4,4 km/h (1 Bft) 0 min 20,0 km/h (4 Bft)
21.07.2010 16:08 27,4 C 27,5 C 3,2 UV-I 0,2 C 47 % 49 % 6 % 1012,1 hPa 0,0 l/m 4,8 km/h (1 Bft) 0 min 8,7 km/h (2 Bft)
21.07.2010 16:13 27,4 C 27,4 C 4,0 UV-I 0,5 C 47 % 49 % 14 % 1012,1 hPa 0,0 l/m 6,4 km/h (2 Bft) 0 min 19,6 km/h (3 Bft)
21.07.2010 16:14 27,4 C 27,3 C 4,0 UV-I 0,6 C 47 % 49 % 17 % 1012,1 hPa 0,0 l/m 6,8 km/h (2 Bft) 0 min 4,5 km/h (1 Bft)
21.07.2010 16:16 27,5 C 27,3 C 4,4 UV-I 0,6 C 47 % 48 % 17 % 1012,1 hPa 0,0 l/m 7,6 km/h (2 Bft) 0 min 12,6 km/h (3 Bft)
21.07.2010 16:18 27,5 C 27,1 C 4,4 UV-I 0,8 C 47 % 49 % 23 % 1012,1 hPa 0,0 l/m 7,6 km/h (2 Bft) 0 min 12,6 km/h (3 Bft)
21.07.2010 16:20 27,5 C 27,0 C 4,4 UV-I 0,8 C 47 % 49 % 23 % 1012,1 hPa 0,0 l/m 8,0 km/h (2 Bft) 0 min 11,3 km/h (2 Bft)
21.07.2010 16:22 27,5 C 27,0 C 3,0 UV-I 0,7 C 47 % 49 % 20 % 1012,1 hPa 0,0 l/m 8,4 km/h (2 Bft) 0 min 4,8 km/h (1 Bft)
21.07.2010 16:24 27,5 C 26,9 C 3,0 UV-I 0,7 C 47 % 49 % 20 % 1012,1 hPa 0,0 l/m 8,4 km/h (2 Bft) 0 min 10,9 km/h (2 Bft)
21.07.2010 16:26 27,5 C 26,9 C 3,1 UV-I 0,6 C 47 % 49 % 17 % 1012,1 hPa 0,0 l/m 8,4 km/h (2 Bft) 0 min 10,9 km/h (2 Bft)
21.07.2010 16:28 27,5 C 26,8 C 3,1 UV-I 0,5 C 47 % 50 % 14 % 1012,1 hPa 0,0 l/m 8,8 km/h (2 Bft) 0 min 17,7 km/h (3 Bft)
21.07.2010 16:30 27,5 C 26,6 C 3,1 UV-I 0,6 C 47 % 51 % 17 % 1012,1 hPa 0,0 l/m 8,8 km/h (2 Bft) 0 min 21,2 km/h (4 Bft)
21.07.2010 16:32 27,5 C 26,5 C 3,2 UV-I 0,4 C 47 % 51 % 11 % 1012,1 hPa 0,0 l/m 9,2 km/h (2 Bft) 0 min 12,6 km/h (3 Bft)
21.07.2010 16:34 27,5 C 26,4 C 3,2 UV-I 0,3 C 47 % 50 % 9 % 1012,1 hPa 0,0 l/m 9,6 km/h (2 Bft) 0 min 13,5 km/h (3 Bft)
21.07.2010 16:36 27,4 C 26,3 C 2,3 UV-I 0,2 C 47 % 51 % 6 % 1012,1 hPa 0,0 l/m 9,6 km/h (2 Bft) 0 min 13,5 km/h (3 Bft)
21.07.2010 16:38 27,5 C 26,3 C 2,3 UV-I 0,0 C 47 % 51 % 0 % 1012,1 hPa 0,0 l/m 9,2 km/h (2 Bft) 0 min 5,1 km/h (1 Bft)
21.07.2010 16:40 27,5 C 26,1 C 2,3 UV-I 0,2 C 47 % 52 % 6 % 1012,1 hPa 0,0 l/m 8,4 km/h (2 Bft) 0 min 5,8 km/h (2 Bft)
21.07.2010 16:42 27,4 C 26,0 C 2,1 UV-I 0,2 C 47 % 52 % 6 % 1012,1 hPa 0,0 l/m 8,4 km/h (2 Bft) 0 min 8,4 km/h (2 Bft)
21.07.2010 16:44 27,4 C 26,1 C 2,1 UV-I 0,0 C 47 % 52 % 0 % 1012,1 hPa 0,0 l/m 8,8 km/h (2 Bft) 0 min 8,7 km/h (2 Bft)
21.07.2010 16:46 27,4 C 26,1 C 2,0 UV-I 0,0 C 47 % 52 % 0 % 1012,1 hPa 0,0 l/m 8,0 km/h (2 Bft) 0 min 8,7 km/h (2 Bft)
21.07.2010 16:48 27,4 C 25,9 C 2,0 UV-I 0,0 C 47 % 52 % 0 % 1012,4 hPa 0,0 l/m 8,0 km/h (2 Bft) 0 min 7,7 km/h (2 Bft)
21.07.2010 16:50 27,4 C 25,8 C 2,0 UV-I 0,0 C 47 % 53 % 0 % 1012,4 hPa 0,0 l/m 7,6 km/h (2 Bft) 0 min 12,6 km/h (3 Bft)
21.07.2010 16:52 27,4 C 25,9 C 1,5 UV-I 0,0 C 47 % 53 % 0 % 1012,4 hPa 0,0 l/m 7,2 km/h (2 Bft) 0 min 12,6 km/h (3 Bft)
21.07.2010 16:54 27,4 C 25,7 C 1,5 UV-I 0,0 C 47 % 53 % 0 % 1012,4 hPa 0,0 l/m 6,0 km/h (2 Bft) 0 min 10,6 km/h (2 Bft)
21.07.2010 16:56 27,4 C 25,8 C 1,7 UV-I 0,0 C 47 % 54 % 0 % 1012,4 hPa 0,0 l/m 5,2 km/h (1 Bft) 0 min 5,8 km/h (2 Bft)
21.07.2010 16:58 27,4 C 25,7 C 1,7 UV-I 0,0 C 47 % 54 % 0 % 1012,4 hPa 0,0 l/m 5,2 km/h (1 Bft) 0 min 7,1 km/h (2 Bft)
21.07.2010 17:00 27,4 C 25,7 C 1,7 UV-I 0,0 C 47 % 54 % 0 % 1012,4 hPa 0,0 l/m 4,4 km/h (1 Bft) 0 min 7,1 km/h (2 Bft)
21.07.2010 17:02 27,4 C 25,6 C 1,8 UV-I 0,1 C 47 % 54 % 3 % 1012,4 hPa 0,0 l/m 4,0 km/h (1 Bft) 0 min 4,2 km/h (1 Bft)
21.07.2010 17:04 27,4 C 25,6 C 1,8 UV-I 0,1 C 47 % 54 % 3 % 1012,4 hPa 0,0 l/m 3,6 km/h (1 Bft) 0 min 4,2 km/h (1 Bft)
21.07.2010 17:06 27,4 C 25,7 C 1,8 UV-I 0,0 C 47 % 54 % 0 % 1012,4 hPa 0,0 l/m 3,6 km/h (1 Bft) 0 min 3,5 km/h (1 Bft)
21.07.2010 17:08 27,4 C 25,7 C 1,8 UV-I 0,0 C 47 % 55 % 0 % 1012,7 hPa 0,0 l/m 3,6 km/h (1 Bft) 0 min 4,5 km/h (1 Bft)
21.07.2010 17:10 27,4 C 25,5 C 1,8 UV-I 0,2 C 47 % 55 % 6 % 1012,7 hPa 0,0 l/m 3,6 km/h (1 Bft) 0 min 6,1 km/h (2 Bft)
21.07.2010 17:12 27,2 C 25,5 C 1,4 UV-I 0,1 C 47 % 54 % 3 % 1012,7 hPa 0,0 l/m 3,6 km/h (1 Bft) 0 min 7,7 km/h (2 Bft)
21.07.2010 17:14 27,2 C 25,5 C 1,4 UV-I 0,1 C 47 % 55 % 3 % 1012,7 hPa 0,0 l/m 3,2 km/h (1 Bft) 0 min 11,6 km/h (2 Bft)
21.07.2010 17:16 27,2 C 25,4 C 1,0 UV-I 0,1 C 47 % 55 % 3 % 1012,7 hPa 0,0 l/m 3,6 km/h (1 Bft) 0 min 11,6 km/h (2 Bft)
21.07.2010 17:18 27,2 C 25,5 C 1,0 UV-I 0,0 C 47 % 55 % 0 % 1012,7 hPa 0,0 l/m 3,6 km/h (1 Bft) 0 min 4,2 km/h (1 Bft)
21.07.2010 17:20 27,2 C 25,3 C 1,0 UV-I 0,0 C 47 % 56 % 0 % 1012,7 hPa 0,0 l/m 3,6 km/h (1 Bft) 0 min 5,5 km/h (1 Bft)
21.07.2010 17:22 27,2 C 25,3 C 1,5 UV-I 0,0 C 47 % 56 % 0 % 1012,7 hPa 0,0 l/m 3,6 km/h (1 Bft) 0 min 5,5 km/h (1 Bft)
21.07.2010 17:24 27,2 C 25,3 C 1,5 UV-I 0,0 C 47 % 56 % 0 % 1012,7 hPa 0,0 l/m 3,6 km/h (1 Bft) 0 min 4,5 km/h (1 Bft)
21.07.2010 17:26 27,3 C 25,3 C 1,8 UV-I 0,0 C 47 % 57 % 0 % 1012,7 hPa 0,0 l/m 2,4 km/h (1 Bft) 0 min 3,9 km/h (1 Bft)
21.07.2010 17:28 27,3 C 25,3 C 1,8 UV-I 0,0 C 47 % 56 % 0 % 1012,5 hPa 0,0 l/m 2,8 km/h (1 Bft) 0 min 5,1 km/h (1 Bft)
21.07.2010 17:30 27,3 C 25,2 C 1,8 UV-I 0,1 C 47 % 56 % 3 % 1012,5 hPa 0,0 l/m 2,8 km/h (1 Bft) 0 min 5,1 km/h (1 Bft)
21.07.2010 17:32 27,2 C 25,2 C 1,6 UV-I 0,1 C 47 % 56 % 3 % 1012,5 hPa 0,0 l/m 2,4 km/h (1 Bft) 0 min 4,5 km/h (1 Bft)
21.07.2010 17:34 27,3 C 25,2 C 1,6 UV-I 0,1 C 47 % 56 % 3 % 1012,5 hPa 0,0 l/m 2,8 km/h (1 Bft) 0 min 8,7 km/h (2 Bft)
21.07.2010 17:36 27,3 C 25,1 C 1,4 UV-I 0,1 C 47 % 56 % 3 % 1012,5 hPa 0,0 l/m 3,2 km/h (1 Bft) 0 min 8,7 km/h (2 Bft)
21.07.2010 17:38 27,2 C 25,0 C 1,4 UV-I 0,1 C 48 % 57 % 3 % 1012,5 hPa 0,0 l/m 3,6 km/h (1 Bft) 0 min 7,4 km/h (2 Bft)
21.07.2010 17:40 27,2 C 25,0 C 1,4 UV-I 0,1 C 47 % 57 % 3 % 1012,5 hPa 0,0 l/m 4,0 km/h (1 Bft) 0 min 7,4 km/h (2 Bft)
21.07.2010 17:42 27,2 C 24,9 C 1,0 UV-I 0,1 C 47 % 57 % 3 % 1012,5 hPa 0,0 l/m 5,2 km/h (1 Bft) 0 min 6,4 km/h (2 Bft)
21.07.2010 17:44 27,2 C 24,8 C 1,0 UV-I 0,0 C 47 % 57 % 0 % 1012,5 hPa 0,0 l/m 5,6 km/h (1 Bft) 0 min 6,1 km/h (2 Bft)
21.07.2010 17:46 27,2 C 24,8 C 0,6 UV-I 0,0 C 48 % 57 % 0 % 1012,5 hPa 0,0 l/m 5,2 km/h (1 Bft) 0 min 6,1 km/h (2 Bft)
21.07.2010 17:48 27,2 C 24,7 C 0,6 UV-I 0,0 C 48 % 58 % 0 % 1012,3 hPa 0,0 l/m 6,0 km/h (2 Bft) 0 min 4,8 km/h (1 Bft)
21.07.2010 17:51 27,2 C 24,6 C 0,6 UV-I 0,0 C 48 % 58 % 0 % 1012,3 hPa 0,0 l/m 5,6 km/h (1 Bft) 0 min 5,1 km/h (1 Bft)
21.07.2010 17:52 27,2 C 24,7 C 0,6 UV-I 0,0 C 48 % 59 % 0 % 1012,3 hPa 0,0 l/m 4,8 km/h (1 Bft) 0 min 4,2 km/h (1 Bft)
21.07.2010 17:54 27,2 C 24,5 C 0,6 UV-I 0,0 C 48 % 59 % 0 % 1012,3 hPa 0,0 l/m 5,2 km/h (1 Bft) 0 min 9,7 km/h (2 Bft)
21.07.2010 17:57 27,2 C 24,4 C 0,5 UV-I 0,0 C 48 % 59 % 0 % 1012,3 hPa 0,0 l/m 5,2 km/h (1 Bft) 0 min 3,5 km/h (1 Bft)
21.07.2010 17:58 27,1 C 24,5 C 0,5 UV-I 0,0 C 48 % 60 % 0 % 1012,3 hPa 0,0 l/m 4,0 km/h (1 Bft) 0 min 6,4 km/h (2 Bft)
21.07.2010 18:00 27,1 C 24,4 C 0,5 UV-I 0,0 C 48 % 59 % 0 % 1012,3 hPa 0,0 l/m 4,0 km/h (1 Bft) 0 min 6,4 km/h (2 Bft)
21.07.2010 18:02 27,2 C 24,3 C 0,3 UV-I 0,0 C 48 % 60 % 0 % 1012,3 hPa 0,0 l/m 3,2 km/h (1 Bft) 0 min 3,9 km/h (1 Bft)
21.07.2010 18:04 27,1 C 24,3 C 0,3 UV-I 0,0 C 48 % 60 % 0 % 1012,3 hPa 0,0 l/m 2,8 km/h (1 Bft) 0 min 3,9 km/h (1 Bft)
21.07.2010 18:06 27,1 C 24,3 C 0,3 UV-I 0,0 C 48 % 60 % 0 % 1012,3 hPa 0,0 l/m 2,8 km/h (1 Bft) 0 min 6,8 km/h (2 Bft)
21.07.2010 18:08 27,1 C 24,3 C 0,3 UV-I 0,0 C 48 % 60 % 0 % 1012,2 hPa 0,0 l/m 3,2 km/h (1 Bft) 0 min 6,8 km/h (2 Bft)
21.07.2010 18:10 27,1 C 24,2 C 0,3 UV-I 0,0 C 48 % 61 % 0 % 1012,2 hPa 0,0 l/m 3,2 km/h (1 Bft) 0 min 4,2 km/h (1 Bft)
21.07.2010 18:12 27,1 C 24,1 C 0,4 UV-I 0,0 C 48 % 62 % 0 % 1012,2 hPa 0,0 l/m 3,6 km/h (1 Bft) 0 min 4,5 km/h (1 Bft)
21.07.2010 18:14 27,1 C 24,0 C 0,4 UV-I 0,0 C 48 % 62 % 0 % 1012,2 hPa 0,0 l/m 3,2 km/h (1 Bft) 0 min 4,5 km/h (1 Bft)
21.07.2010 18:16 27,0 C 24,1 C 0,3 UV-I 0,0 C 48 % 62 % 0 % 1012,2 hPa 0,0 l/m 2,4 km/h (1 Bft) 0 min 4,5 km/h (1 Bft)
21.07.2010 18:18 27,0 C 23,9 C 0,3 UV-I 0,0 C 48 % 63 % 0 % 1012,2 hPa 0,0 l/m 2,0 km/h (1 Bft) 0 min 0,0 km/h (0 Bft)
21.07.2010 18:20 27,0 C 24,0 C 0,3 UV-I 0,0 C 48 % 63 % 0 % 1012,2 hPa 0,0 l/m 1,2 km/h (1 Bft) 0 min 0,0 km/h (0 Bft)
21.07.2010 18:22 27,0 C 23,9 C 0,4 UV-I 0,0 C 48 % 63 % 0 % 1012,2 hPa 0,0 l/m 1,2 km/h (1 Bft) 0 min 3,5 km/h (1 Bft)
21.07.2010 18:24 27,0 C 23,8 C 0,4 UV-I 0,0 C 48 % 64 % 0 % 1012,2 hPa 0,0 l/m 0,8 km/h (0 Bft) 0 min 6,8 km/h (2 Bft)
21.07.2010 18:26 27,0 C 23,7 C 0,2 UV-I 0,0 C 48 % 64 % 0 % 1012,2 hPa 0,0 l/m 0,8 km/h (0 Bft) 0 min 6,8 km/h (2 Bft)
21.07.2010 18:28 27,0 C 23,7 C 0,2 UV-I 0,0 C 48 % 64 % 0 % 1012,3 hPa 0,0 l/m 1,2 km/h (1 Bft) 0 min 0,0 km/h (0 Bft)
21.07.2010 18:30 27,0 C 23,7 C 0,2 UV-I 0,0 C 48 % 64 % 0 % 1012,3 hPa 0,0 l/m 1,2 km/h (1 Bft) 0 min 0,0 km/h (0 Bft)
21.07.2010 18:32 27,0 C 23,6 C 0,4 UV-I 0,0 C 48 % 64 % 0 % 1012,3 hPa 0,0 l/m 0,8 km/h (0 Bft) 0 min 0,0 km/h (0 Bft)
21.07.2010 18:34 27,0 C 23,6 C 0,4 UV-I 0,0 C 49 % 64 % 0 % 1012,3 hPa 0,0 l/m 0,8 km/h (0 Bft) 0 min 0,0 km/h (0 Bft)
21.07.2010 18:36 27,0 C 23,6 C 0,5 UV-I 0,0 C 48 % 64 % 0 % 1012,3 hPa 0,0 l/m 0,0 km/h (0 Bft) 0 min 0,0 km/h (0 Bft)
21.07.2010 18:38 27,0 C 23,5 C 0,5 UV-I 0,0 C 49 % 65 % 0 % 1012,3 hPa 0,0 l/m 0,4 km/h (0 Bft) 0 min 0,0 km/h (0 Bft)
21.07.2010 18:42 27,0 C 23,5 C 0,9 UV-I 0,0 C 49 % 65 % 0 % 1012,3 hPa 0,0 l/m 0,0 km/h (0 Bft) 0 min 0,0 km/h (0 Bft)
21.07.2010 18:44 26,9 C 23,5 C 0,9 UV-I 0,0 C 49 % 65 % 0 % 1012,3 hPa 0,0 l/m 0,0 km/h (0 Bft) 0 min 0,0 km/h (0 Bft)
21.07.2010 18:46 26,9 C 23,5 C 0,8 UV-I 0,0 C 49 % 65 % 0 % 1012,3 hPa 0,0 l/m 0,0 km/h (0 Bft) 0 min 3,2 km/h (1 Bft)
21.07.2010 18:48 26,9 C 23,5 C 0,8 UV-I 0,0 C 49 % 65 % 0 % 1012,4 hPa 0,0 l/m 0,0 km/h (0 Bft) 0 min 3,2 km/h (1 Bft)
21.07.2010 18:50 26,9 C 23,5 C 0,8 UV-I 0,0 C 49 % 66 % 0 % 1012,4 hPa 0,0 l/m 0,0 km/h (0 Bft) 0 min 0,0 km/h (0 Bft)
21.07.2010 18:52 26,9 C 23,4 C 0,7 UV-I 0,0 C 49 % 66 % 0 % 1012,4 hPa 0,0 l/m 0,0 km/h (0 Bft) 0 min 0,0 km/h (0 Bft)
21.07.2010 18:54 26,9 C 23,4 C 0,7 UV-I 0,0 C 49 % 66 % 0 % 1012,4 hPa 0,0 l/m 0,0 km/h (0 Bft) 0 min 0,0 km/h (0 Bft)
21.07.2010 18:56 26,9 C 23,5 C 0,8 UV-I 0,0 C 49 % 67 % 0 % 1012,4 hPa 0,0 l/m 0,0 km/h (0 Bft) 0 min 0,0 km/h (0 Bft)
21.07.2010 18:58 26,9 C 23,5 C 0,8 UV-I 0,0 C 49 % 67 % 0 % 1012,4 hPa 0,0 l/m 0,0 km/h (0 Bft) 0 min 0,0 km/h (0 Bft)
21.07.2010 19:00 26,9 C 23,5 C 0,8 UV-I 0,0 C 49 % 67 % 0 % 1012,4 hPa 0,0 l/m 0,4 km/h (0 Bft) 0 min 3,5 km/h (1 Bft)
21.07.2010 19:04 26,9 C 23,3 C 0,7 UV-I 0,0 C 49 % 67 % 0 % 1012,4 hPa 0,0 l/m 0,4 km/h (0 Bft) 0 min 3,5 km/h (1 Bft)
21.07.2010 19:06 26,8 C 23,2 C 0,8 UV-I 0,0 C 49 % 67 % 0 % 1012,4 hPa 0,0 l/m 0,8 km/h (0 Bft) 0 min 0,0 km/h (0 Bft)
21.07.2010 19:08 26,8 C 23,2 C 0,8 UV-I 0,0 C 49 % 68 % 0 % 1012,4 hPa 0,0 l/m 0,8 km/h (0 Bft) 0 min 3,9 km/h (1 Bft)
21.07.2010 19:10 26,8 C 23,2 C 0,8 UV-I 0,0 C 49 % 67 % 0 % 1012,4 hPa 0,0 l/m 1,2 km/h (1 Bft) 0 min 3,9 km/h (1 Bft)
21.07.2010 19:12 26,8 C 23,2 C 0,8 UV-I 0,0 C 49 % 67 % 0 % 1012,4 hPa 0,0 l/m 0,8 km/h (0 Bft) 0 min 3,9 km/h (1 Bft)
21.07.2010 19:14 26,8 C 23,1 C 0,8 UV-I 0,0 C 49 % 68 % 0 % 1012,4 hPa 0,0 l/m 0,8 km/h (0 Bft) 0 min 0,0 km/h (0 Bft)
21.07.2010 19:16 26,8 C 23,0 C 0,8 UV-I 0,0 C 49 % 67 % 0 % 1012,4 hPa 0,0 l/m 0,8 km/h (0 Bft) 0 min 0,0 km/h (0 Bft)
21.07.2010 19:18 26,8 C 23,0 C 0,8 UV-I 0,0 C 49 % 68 % 0 % 1012,4 hPa 0,0 l/m 1,2 km/h (1 Bft) 0 min 6,1 km/h (2 Bft)
21.07.2010 19:20 26,8 C 23,0 C 0,8 UV-I 0,0 C 49 % 68 % 0 % 1012,4 hPa 0,0 l/m 1,2 km/h (1 Bft) 0 min 6,1 km/h (2 Bft)
21.07.2010 19:22 26,8 C 22,9 C 0,7 UV-I 0,0 C 49 % 68 % 0 % 1012,4 hPa 0,0 l/m 1,6 km/h (1 Bft) 0 min 6,4 km/h (2 Bft)
21.07.2010 19:24 26,8 C 22,8 C 0,7 UV-I 0,0 C 49 % 68 % 0 % 1012,4 hPa 0,0 l/m 2,0 km/h (1 Bft) 0 min 6,4 km/h (2 Bft)
21.07.2010 19:26 26,8 C 22,8 C 0,6 UV-I 0,0 C 50 % 68 % 0 % 1012,4 hPa 0,0 l/m 2,0 km/h (1 Bft) 0 min 4,8 km/h (1 Bft)
21.07.2010 19:28 26,8 C 22,7 C 0,6 UV-I 0,0 C 50 % 68 % 0 % 1012,3 hPa 0,0 l/m 2,4 km/h (1 Bft) 0 min 0,0 km/h (0 Bft)
21.07.2010 19:30 26,8 C 22,7 C 0,6 UV-I 0,0 C 50 % 68 % 0 % 1012,3 hPa 0,0 l/m 2,0 km/h (1 Bft) 0 min 0,0 km/h (0 Bft)
21.07.2010 19:32 26,8 C 22,7 C 0,5 UV-I 0,0 C 50 % 69 % 0 % 1012,3 hPa 0,0 l/m 1,6 km/h (1 Bft) 0 min 0,0 km/h (0 Bft)
21.07.2010 19:34 26,8 C 22,6 C 0,5 UV-I 0,0 C 50 % 69 % 0 % 1012,3 hPa 0,0 l/m 1,2 km/h (1 Bft) 0 min 0,0 km/h (0 Bft)
21.07.2010 19:36 26,8 C 22,5 C 0,5 UV-I 0,0 C 50 % 69 % 0 % 1012,3 hPa 0,0 l/m 0,8 km/h (0 Bft) 0 min 0,0 km/h (0 Bft)
21.07.2010 19:38 26,8 C 22,5 C 0,5 UV-I 0,0 C 50 % 70 % 0 % 1012,3 hPa 0,0 l/m 0,0 km/h (0 Bft) 0 min 0,0 km/h (0 Bft)
21.07.2010 19:40 26,8 C 22,5 C 0,5 UV-I 0,0 C 50 % 70 % 0 % 1012,3 hPa 0,0 l/m 0,0 km/h (0 Bft) 0 min 0,0 km/h (0 Bft)
21.07.2010 19:42 26,8 C 22,5 C 0,7 UV-I 0,0 C 50 % 70 % 0 % 1012,3 hPa 0,0 l/m 0,0 km/h (0 Bft) 0 min 0,0 km/h (0 Bft)
21.07.2010 19:44 26,8 C 22,4 C 0,7 UV-I 0,0 C 50 % 70 % 0 % 1012,3 hPa 0,0 l/m 0,0 km/h (0 Bft) 0 min 0,0 km/h (0 Bft)
21.07.2010 19:46 26,8 C 22,4 C 0,6 UV-I 0,0 C 50 % 70 % 0 % 1012,3 hPa 0,0 l/m 0,0 km/h (0 Bft) 0 min 0,0 km/h (0 Bft)
21.07.2010 19:48 26,8 C 22,3 C 0,6 UV-I 0,0 C 50 % 71 % 0 % 1012,3 hPa 0,0 l/m 0,4 km/h (0 Bft) 0 min 3,9 km/h (1 Bft)
21.07.2010 19:50 26,7 C 22,3 C 0,6 UV-I 0,0 C 50 % 70 % 0 % 1012,3 hPa 0,0 l/m 0,8 km/h (0 Bft) 0 min 5,5 km/h (1 Bft)
21.07.2010 19:52 26,7 C 22,2 C 0,4 UV-I 0,0 C 50 % 71 % 0 % 1012,3 hPa 0,0 l/m 0,8 km/h (0 Bft) 0 min 5,5 km/h (1 Bft)
21.07.2010 19:54 26,8 C 22,3 C 0,4 UV-I 0,0 C 50 % 71 % 0 % 1012,3 hPa 0,0 l/m 0,8 km/h (0 Bft) 0 min 0,0 km/h (0 Bft)
21.07.2010 19:56 26,7 C 22,3 C 0,3 UV-I 0,0 C 50 % 72 % 0 % 1012,3 hPa 0,0 l/m 0,8 km/h (0 Bft) 0 min 0,0 km/h (0 Bft)
21.07.2010 19:58 26,7 C 22,3 C 0,3 UV-I 0,0 C 50 % 72 % 0 % 1012,3 hPa 0,0 l/m 0,8 km/h (0 Bft) 0 min 0,0 km/h (0 Bft)
21.07.2010 20:00 26,7 C 22,1 C 0,3 UV-I 0,0 C 50 % 72 % 0 % 1012,3 hPa 0,0 l/m 0,8 km/h (0 Bft) 0 min 6,1 km/h (2 Bft)
21.07.2010 20:02 26,7 C 22,1 C 0,3 UV-I 0,0 C 50 % 73 % 0 % 1012,3 hPa 0,0 l/m 0,8 km/h (0 Bft) 0 min 6,1 km/h (2 Bft)
21.07.2010 20:04 26,7 C 22,1 C 0,3 UV-I 0,0 C 50 % 73 % 0 % 1012,3 hPa 0,0 l/m 0,8 km/h (0 Bft) 0 min 5,8 km/h (2 Bft)
21.07.2010 20:06 26,7 C 22,1 C 0,2 UV-I 0,0 C 50 % 73 % 0 % 1012,3 hPa 0,0 l/m 0,8 km/h (0 Bft) 0 min 0,0 km/h (0 Bft)
21.07.2010 20:08 26,7 C 22,0 C 0,2 UV-I 0,0 C 50 % 74 % 0 % 1012,3 hPa 0,0 l/m 0,8 km/h (0 Bft) 0 min 0,0 km/h (0 Bft)
21.07.2010 20:10 26,7 C 22,1 C 0,2 UV-I 0,0 C 50 % 74 % 0 % 1012,3 hPa 0,0 l/m 1,2 km/h (1 Bft) 0 min 0,0 km/h (0 Bft)
21.07.2010 20:12 26,7 C 21,9 C 0,3 UV-I 0,0 C 50 % 74 % 0 % 1012,3 hPa 0,0 l/m 1,2 km/h (1 Bft) 0 min 0,0 km/h (0 Bft)
21.07.2010 20:14 26,7 C 21,9 C 0,3 UV-I 0,0 C 50 % 74 % 0 % 1012,3 hPa 0,1 l/m 1,6 km/h (1 Bft) 0 min 5,5 km/h (1 Bft)
21.07.2010 20:16 26,7 C 21,9 C 0,1 UV-I 0,0 C 50 % 74 % 0 % 1012,3 hPa 0,0 l/m 2,4 km/h (1 Bft) 0 min 5,5 km/h (1 Bft)
21.07.2010 20:18 26,7 C 21,8 C 0,1 UV-I 0,0 C 50 % 74 % 0 % 1012,3 hPa 0,0 l/m 2,0 km/h (1 Bft) 0 min 4,2 km/h (1 Bft)
21.07.2010 20:20 26,6 C 21,8 C 0,1 UV-I 0,0 C 51 % 75 % 0 % 1012,3 hPa 0,0 l/m 1,6 km/h (1 Bft) 0 min 0,0 km/h (0 Bft)
21.07.2010 20:22 26,7 C 21,9 C 0,0 UV-I 0,0 C 51 % 76 % 0 % 1012,3 hPa 0,0 l/m 2,4 km/h (1 Bft) 0 min 10,0 km/h (2 Bft)
21.07.2010 20:24 26,6 C 21,8 C 0,0 UV-I 0,0 C 51 % 76 % 0 % 1012,3 hPa 0,0 l/m 2,0 km/h (1 Bft) 0 min 10,0 km/h (2 Bft)
21.07.2010 20:26 26,6 C 21,7 C 0,0 UV-I 0,0 C 51 % 77 % 0 % 1012,3 hPa 0,1 l/m 1,6 km/h (1 Bft) 0 min 0,0 km/h (0 Bft)
21.07.2010 20:28 26,6 C 21,7 C 0,0 UV-I 0,0 C 51 % 77 % 0 % 1012,9 hPa 0,0 l/m 2,0 km/h (1 Bft) 0 min 3,5 km/h (1 Bft)
21.07.2010 20:30 26,6 C 21,6 C 0,0 UV-I 0,0 C 51 % 78 % 0 % 1012,9 hPa 0,1 l/m 2,4 km/h (1 Bft) 0 min 3,5 km/h (1 Bft)
21.07.2010 20:32 26,6 C 21,6 C 0,0 UV-I 0,0 C 51 % 78 % 0 % 1012,9 hPa 0,2 l/m 2,4 km/h (1 Bft) 0 min 9,3 km/h (2 Bft)
21.07.2010 20:34 26,6 C 21,4 C 0,0 UV-I 0,0 C 51 % 78 % 0 % 1012,9 hPa 0,0 l/m 3,2 km/h (1 Bft) 0 min 9,3 km/h (2 Bft)
21.07.2010 20:36 26,6 C 21,4 C 0,0 UV-I 0,0 C 51 % 79 % 0 % 1012,9 hPa 0,2 l/m 3,6 km/h (1 Bft) 0 min 6,4 km/h (2 Bft)
21.07.2010 20:38 26,6 C 21,2 C 0,0 UV-I 0,0 C 51 % 80 % 0 % 1012,9 hPa 0,1 l/m 4,0 km/h (1 Bft) 0 min 6,1 km/h (2 Bft)
21.07.2010 20:40 26,6 C 21,2 C 0,0 UV-I 0,0 C 51 % 80 % 0 % 1012,9 hPa 0,0 l/m 4,4 km/h (1 Bft) 0 min 6,1 km/h (2 Bft)
21.07.2010 20:42 26,6 C 21,1 C 0,0 UV-I 0,0 C 51 % 80 % 0 % 1012,9 hPa 0,1 l/m 4,8 km/h (1 Bft) 0 min 5,5 km/h (1 Bft)
21.07.2010 20:44 26,6 C 21,1 C 0,0 UV-I 0,0 C 51 % 82 % 0 % 1012,9 hPa 0,1 l/m 4,8 km/h (1 Bft) 0 min 0,0 km/h (0 Bft)
21.07.2010 20:46 26,6 C 20,8 C 0,0 UV-I 0,0 C 51 % 82 % 0 % 1012,9 hPa 0,0 l/m 4,0 km/h (1 Bft) 0 min 4,2 km/h (1 Bft)
21.07.2010 20:48 26,6 C 20,9 C 0,0 UV-I 0,0 C 52 % 82 % 0 % 1012,9 hPa 0,1 l/m 4,4 km/h (1 Bft) 0 min 6,8 km/h (2 Bft)
21.07.2010 20:50 26,6 C 20,7 C 0,0 UV-I 0,0 C 52 % 83 % 0 % 1012,9 hPa 0,1 l/m 4,4 km/h (1 Bft) 0 min 6,8 km/h (2 Bft)
21.07.2010 20:52 26,6 C 20,7 C 0,0 UV-I 0,0 C 52 % 83 % 0 % 1012,9 hPa 0,0 l/m 4,0 km/h (1 Bft) 0 min 5,5 km/h (1 Bft)
21.07.2010 20:54 26,5 C 20,7 C 0,0 UV-I 0,0 C 52 % 83 % 0 % 1012,9 hPa 0,1 l/m 2,8 km/h (1 Bft) 0 min 3,2 km/h (1 Bft)
21.07.2010 20:56 26,5 C 20,6 C 0,0 UV-I 0,0 C 52 % 83 % 0 % 1012,9 hPa 0,1 l/m 2,8 km/h (1 Bft) 0 min 3,5 km/h (1 Bft)
21.07.2010 20:58 26,5 C 20,5 C 0,0 UV-I 0,0 C 52 % 84 % 0 % 1012,9 hPa 0,0 l/m 2,8 km/h (1 Bft) 0 min 4,2 km/h (1 Bft)
21.07.2010 21:00 26,5 C 20,4 C 0,0 UV-I 0,0 C 52 % 84 % 0 % 1012,9 hPa 0,0 l/m 2,0 km/h (1 Bft) 0 min 4,2 km/h (1 Bft)
21.07.2010 21:02 26,5 C 20,4 C 0,0 UV-I 0,0 C 52 % 84 % 0 % 1012,9 hPa 0,0 l/m 1,6 km/h (1 Bft) 0 min 5,5 km/h (1 Bft)
21.07.2010 21:04 26,5 C 20,3 C 0,0 UV-I 0,0 C 52 % 85 % 0 % 1012,9 hPa 0,0 l/m 2,0 km/h (1 Bft) 0 min 5,5 km/h (1 Bft)
21.07.2010 21:06 26,5 C 20,5 C 0,0 UV-I 0,0 C 52 % 85 % 0 % 1012,9 hPa 0,0 l/m 2,4 km/h (1 Bft) 0 min 5,1 km/h (1 Bft)
21.07.2010 21:10 26,5 C 20,2 C 0,0 UV-I 0,0 C 52 % 86 % 0 % 1013,0 hPa 0,0 l/m 2,8 km/h (1 Bft) 0 min 9,3 km/h (2 Bft)
21.07.2010 21:12 26,4 C 20,2 C 0,0 UV-I 0,0 C 52 % 86 % 0 % 1013,0 hPa 0,0 l/m 3,6 km/h (1 Bft) 0 min 9,3 km/h (2 Bft)
21.07.2010 21:14 26,5 C 20,3 C 0,0 UV-I 0,0 C 52 % 86 % 0 % 1013,0 hPa 0,0 l/m 4,0 km/h (1 Bft) 0 min 8,7 km/h (2 Bft)
21.07.2010 21:16 26,4 C 20,1 C 0,0 UV-I 0,0 C 52 % 86 % 0 % 1013,0 hPa 0,0 l/m 4,0 km/h (1 Bft) 0 min 6,8 km/h (2 Bft)
21.07.2010 21:20 26,5 C 20,1 C 0,0 UV-I 0,0 C 53 % 86 % 0 % 1013,0 hPa 0,0 l/m 4,4 km/h (1 Bft) 0 min 4,5 km/h (1 Bft)
21.07.2010 21:22 26,4 C 20,1 C 0,0 UV-I 0,0 C 53 % 87 % 0 % 1013,0 hPa 0,0 l/m 3,2 km/h (1 Bft) 0 min 0,0 km/h (0 Bft)
21.07.2010 21:24 26,4 C 20,1 C 0,0 UV-I 0,0 C 53 % 87 % 0 % 1013,0 hPa 0,1 l/m 2,4 km/h (1 Bft) 0 min 3,9 km/h (1 Bft)
21.07.2010 21:26 26,4 C 20,1 C 0,0 UV-I 0,0 C 53 % 87 % 0 % 1013,0 hPa 0,0 l/m 2,8 km/h (1 Bft) 0 min 5,5 km/h (1 Bft)
21.07.2010 21:28 26,4 C 20,1 C 0,0 UV-I 0,0 C 53 % 87 % 0 % 1013,2 hPa 0,0 l/m 2,4 km/h (1 Bft) 0 min 5,5 km/h (1 Bft)
21.07.2010 21:30 26,4 C 20,1 C 0,0 UV-I 0,0 C 53 % 87 % 0 % 1013,2 hPa 0,0 l/m 2,4 km/h (1 Bft) 0 min 6,1 km/h (2 Bft)
21.07.2010 21:32 26,4 C 20,0 C 0,0 UV-I 0,0 C 53 % 87 % 0 % 1013,2 hPa 0,0 l/m 2,8 km/h (1 Bft) 0 min 6,1 km/h (2 Bft)
21.07.2010 21:34 26,4 C 20,1 C 0,0 UV-I 0,0 C 53 % 87 % 0 % 1013,2 hPa 0,0 l/m 2,4 km/h (1 Bft) 0 min 3,5 km/h (1 Bft)
21.07.2010 21:36 26,4 C 20,0 C 0,0 UV-I 0,0 C 53 % 87 % 0 % 1013,2 hPa 0,0 l/m 2,0 km/h (1 Bft) 0 min 3,5 km/h (1 Bft)
21.07.2010 21:38 26,4 C 20,0 C 0,0 UV-I 0,0 C 53 % 87 % 0 % 1013,2 hPa 0,0 l/m 1,6 km/h (1 Bft) 0 min 0,0 km/h (0 Bft)
21.07.2010 21:40 26,4 C 19,9 C 0,0 UV-I 0,0 C 53 % 88 % 0 % 1013,2 hPa 0,0 l/m 0,8 km/h (0 Bft) 0 min 0,0 km/h (0 Bft)
21.07.2010 21:42 26,4 C 19,9 C 0,0 UV-I 0,0 C 53 % 88 % 0 % 1013,2 hPa 0,0 l/m 0,4 km/h (0 Bft) 0 min 3,9 km/h (1 Bft)
21.07.2010 21:44 26,4 C 19,9 C 0,0 UV-I 0,0 C 53 % 88 % 0 % 1013,2 hPa 0,0 l/m 0,8 km/h (0 Bft) 0 min 3,9 km/h (1 Bft)
21.07.2010 21:46 26,4 C 19,9 C 0,0 UV-I 0,0 C 53 % 88 % 0 % 1013,2 hPa 0,1 l/m 1,2 km/h (1 Bft) 0 min 0,0 km/h (0 Bft)
21.07.2010 21:48 26,4 C 19,9 C 0,0 UV-I 0,0 C 53 % 88 % 0 % 1013,2 hPa 0,0 l/m 1,6 km/h (1 Bft) 0 min 0,0 km/h (0 Bft)
21.07.2010 21:50 26,4 C 19,9 C 0,0 UV-I 0,0 C 53 % 88 % 0 % 1013,2 hPa 0,0 l/m 1,6 km/h (1 Bft) 0 min 0,0 km/h (0 Bft)
21.07.2010 21:52 26,2 C 19,9 C 0,0 UV-I 0,0 C 53 % 88 % 0 % 1013,2 hPa 0,0 l/m 2,4 km/h (1 Bft) 0 min 6,1 km/h (2 Bft)
21.07.2010 21:54 26,2 C 19,9 C 0,0 UV-I 0,0 C 54 % 88 % 0 % 1013,2 hPa 0,0 l/m 2,4 km/h (1 Bft) 0 min 6,1 km/h (2 Bft)
21.07.2010 21:56 26,2 C 19,8 C 0,0 UV-I 0,0 C 54 % 89 % 0 % 1013,2 hPa 0,0 l/m 2,4 km/h (1 Bft) 0 min 0,0 km/h (0 Bft)
21.07.2010 21:58 26,2 C 19,8 C 0,0 UV-I 0,0 C 54 % 89 % 0 % 1013,2 hPa 0,0 l/m 2,8 km/h (1 Bft) 0 min 7,1 km/h (2 Bft)
21.07.2010 22:00 26,2 C 19,9 C 0,0 UV-I 0,0 C 54 % 89 % 0 % 1013,2 hPa 0,0 l/m 3,2 km/h (1 Bft) 0 min 7,1 km/h (2 Bft)
21.07.2010 22:02 26,2 C 19,9 C 0,0 UV-I 0,0 C 54 % 89 % 0 % 1013,2 hPa 0,0 l/m 3,2 km/h (1 Bft) 0 min 7,1 km/h (2 Bft)
21.07.2010 22:04 26,2 C 19,9 C 0,0 UV-I 0,0 C 54 % 89 % 0 % 1013,2 hPa 0,0 l/m 3,2 km/h (1 Bft) 0 min 7,1 km/h (2 Bft)
21.07.2010 22:06 26,3 C 19,9 C 0,0 UV-I 0,0 C 54 % 89 % 0 % 1013,2 hPa 0,0 l/m 2,8 km/h (1 Bft) 0 min 0,0 km/h (0 Bft)
21.07.2010 22:08 26,3 C 19,9 C 0,0 UV-I 0,0 C 54 % 89 % 0 % 1013,2 hPa 0,0 l/m 2,4 km/h (1 Bft) 0 min 0,0 km/h (0 Bft)
21.07.2010 22:10 26,3 C 19,9 C 0,0 UV-I 0,0 C 54 % 89 % 0 % 1013,2 hPa 0,0 l/m 2,0 km/h (1 Bft) 0 min 0,0 km/h (0 Bft)
21.07.2010 22:12 26,3 C 19,8 C 0,0 UV-I 0,0 C 54 % 89 % 0 % 1013,2 hPa 0,0 l/m 1,6 km/h (1 Bft) 0 min 0,0 km/h (0 Bft)
21.07.2010 22:14 26,3 C 19,8 C 0,0 UV-I 0,0 C 54 % 89 % 0 % 1013,2 hPa 0,0 l/m 0,8 km/h (0 Bft) 0 min 0,0 km/h (0 Bft)
21.07.2010 22:16 26,3 C 19,8 C 0,0 UV-I 0,0 C 54 % 89 % 0 % 1013,2 hPa 0,0 l/m 1,2 km/h (1 Bft) 0 min 3,5 km/h (1 Bft)
21.07.2010 22:18 26,3 C 19,7 C 0,0 UV-I 0,0 C 54 % 89 % 0 % 1013,2 hPa 0,0 l/m 1,2 km/h (1 Bft) 0 min 3,5 km/h (1 Bft)
21.07.2010 22:20 26,3 C 19,7 C 0,0 UV-I 0,0 C 54 % 89 % 0 % 1013,2 hPa 0,0 l/m 1,2 km/h (1 Bft) 0 min 0,0 km/h (0 Bft)
21.07.2010 22:22 26,3 C 19,7 C 0,0 UV-I 0,0 C 54 % 89 % 0 % 1013,2 hPa 0,0 l/m 1,2 km/h (1 Bft) 0 min 4,8 km/h (1 Bft)
21.07.2010 22:24 26,2 C 19,7 C 0,0 UV-I 0,0 C 54 % 90 % 0 % 1013,2 hPa 0,0 l/m 1,2 km/h (1 Bft) 0 min 4,8 km/h (1 Bft)
21.07.2010 22:26 26,3 C 19,7 C 0,0 UV-I 0,0 C 54 % 90 % 0 % 1013,2 hPa 0,0 l/m 1,2 km/h (1 Bft) 0 min 4,2 km/h (1 Bft)
21.07.2010 22:28 26,2 C 19,7 C 0,0 UV-I 0,0 C 54 % 90 % 0 % 1013,2 hPa 0,0 l/m 0,8 km/h (0 Bft) 0 min 4,2 km/h (1 Bft)
21.07.2010 22:30 26,2 C 19,7 C 0,0 UV-I 0,0 C 54 % 90 % 0 % 1013,2 hPa 0,0 l/m 0,8 km/h (0 Bft) 0 min 0,0 km/h (0 Bft)
21.07.2010 22:32 26,2 C 19,7 C 0,0 UV-I 0,0 C 54 % 90 % 0 % 1013,2 hPa 0,0 l/m 1,2 km/h (1 Bft) 0 min 3,2 km/h (1 Bft)
21.07.2010 22:36 26,2 C 19,6 C 0,0 UV-I 0,0 C 54 % 90 % 0 % 1013,2 hPa 0,0 l/m 2,0 km/h (1 Bft) 0 min 3,5 km/h (1 Bft)
21.07.2010 22:38 26,2 C 19,6 C 0,0 UV-I 0,0 C 54 % 90 % 0 % 1013,2 hPa 0,0 l/m 2,0 km/h (1 Bft) 0 min 4,5 km/h (1 Bft)
21.07.2010 22:40 26,2 C 19,6 C 0,0 UV-I 0,0 C 54 % 90 % 0 % 1013,2 hPa 0,0 l/m 2,4 km/h (1 Bft) 0 min 4,5 km/h (1 Bft)
21.07.2010 22:42 26,2 C 19,7 C 0,0 UV-I 0,0 C 54 % 90 % 0 % 1013,2 hPa 0,0 l/m 3,2 km/h (1 Bft) 0 min 8,4 km/h (2 Bft)
21.07.2010 22:44 26,2 C 19,6 C 0,0 UV-I 0,0 C 54 % 90 % 0 % 1013,2 hPa 0,0 l/m 3,2 km/h (1 Bft) 0 min 8,4 km/h (2 Bft)
21.07.2010 22:46 26,2 C 19,7 C 0,0 UV-I 0,0 C 54 % 90 % 0 % 1013,2 hPa 0,0 l/m 3,2 km/h (1 Bft) 0 min 7,1 km/h (2 Bft)
21.07.2010 22:48 26,2 C 19,7 C 0,0 UV-I 0,0 C 54 % 90 % 0 % 1013,2 hPa 0,0 l/m 3,2 km/h (1 Bft) 0 min 3,2 km/h (1 Bft)
21.07.2010 22:50 26,2 C 19,6 C 0,0 UV-I 0,0 C 54 % 90 % 0 % 1013,2 hPa 0,0 l/m 2,4 km/h (1 Bft) 0 min 0,0 km/h (0 Bft)
21.07.2010 22:52 26,2 C 19,6 C 0,0 UV-I 0,0 C 54 % 90 % 0 % 1013,2 hPa 0,0 l/m 2,0 km/h (1 Bft) 0 min 0,0 km/h (0 Bft)
21.07.2010 22:54 26,2 C 19,6 C 0,0 UV-I 0,0 C 54 % 90 % 0 % 1013,2 hPa 0,0 l/m 1,6 km/h (1 Bft) 0 min 3,2 km/h (1 Bft)
21.07.2010 22:56 26,2 C 19,6 C 0,0 UV-I 0,0 C 54 % 90 % 0 % 1013,2 hPa 0,0 l/m 1,6 km/h (1 Bft) 0 min 3,2 km/h (1 Bft)
21.07.2010 22:58 26,2 C 19,6 C 0,0 UV-I 0,0 C 54 % 90 % 0 % 1013,2 hPa 0,0 l/m 1,2 km/h (1 Bft) 0 min 0,0 km/h (0 Bft)
21.07.2010 23:00 26,2 C 19,6 C 0,0 UV-I 0,0 C 55 % 90 % 0 % 1013,2 hPa 0,0 l/m 1,6 km/h (1 Bft) 0 min 4,8 km/h (1 Bft)
21.07.2010 23:02 26,2 C 19,6 C 0,0 UV-I 0,0 C 55 % 90 % 0 % 1013,2 hPa 0,0 l/m 2,0 km/h (1 Bft) 0 min 4,8 km/h (1 Bft)
21.07.2010 23:04 26,2 C 19,5 C 0,0 UV-I 0,0 C 55 % 91 % 0 % 1013,2 hPa 0,0 l/m 2,0 km/h (1 Bft) 0 min 3,5 km/h (1 Bft)
21.07.2010 23:06 26,2 C 19,6 C 0,0 UV-I 0,0 C 55 % 91 % 0 % 1013,2 hPa 0,0 l/m 1,6 km/h (1 Bft) 0 min 3,9 km/h (1 Bft)
21.07.2010 23:08 26,2 C 19,6 C 0,0 UV-I 0,0 C 55 % 91 % 0 % 1013,4 hPa 0,0 l/m 1,6 km/h (1 Bft) 0 min 3,9 km/h (1 Bft)
21.07.2010 23:10 26,2 C 19,5 C 0,0 UV-I 0,0 C 55 % 91 % 0 % 1013,4 hPa 0,0 l/m 1,6 km/h (1 Bft) 0 min 6,4 km/h (2 Bft)
21.07.2010 23:12 26,2 C 19,5 C 0,0 UV-I 0,0 C 55 % 91 % 0 % 1013,4 hPa 0,0 l/m 1,2 km/h (1 Bft) 0 min 6,4 km/h (2 Bft)
21.07.2010 23:14 26,1 C 19,5 C 0,0 UV-I 0,0 C 55 % 91 % 0 % 1013,4 hPa 0,0 l/m 1,2 km/h (1 Bft) 0 min 0,0 km/h (0 Bft)
21.07.2010 23:16 26,2 C 19,5 C 0,0 UV-I 0,0 C 55 % 91 % 0 % 1013,4 hPa 0,0 l/m 1,2 km/h (1 Bft) 0 min 0,0 km/h (0 Bft)
21.07.2010 23:18 26,1 C 19,5 C 0,0 UV-I 0,0 C 55 % 91 % 0 % 1013,4 hPa 0,0 l/m 0,8 km/h (0 Bft) 0 min 3,9 km/h (1 Bft)
21.07.2010 23:20 26,1 C 19,5 C 0,0 UV-I 0,0 C 55 % 91 % 0 % 1013,4 hPa 0,0 l/m 1,2 km/h (1 Bft) 0 min 3,9 km/h (1 Bft)
21.07.2010 23:22 26,1 C 19,5 C 0,0 UV-I 0,0 C 55 % 91 % 0 % 1013,4 hPa 0,0 l/m 0,8 km/h (0 Bft) 0 min 3,9 km/h (1 Bft)
21.07.2010 23:24 26,1 C 19,5 C 0,0 UV-I 0,0 C 55 % 91 % 0 % 1013,4 hPa 0,0 l/m 1,2 km/h (1 Bft) 0 min 0,0 km/h (0 Bft)
21.07.2010 23:26 26,1 C 19,5 C 0,0 UV-I 0,0 C 55 % 91 % 0 % 1013,4 hPa 0,0 l/m 1,2 km/h (1 Bft) 0 min 0,0 km/h (0 Bft)
21.07.2010 23:28 26,1 C 19,5 C 0,0 UV-I 0,0 C 55 % 91 % 0 % 1013,4 hPa 0,0 l/m 1,2 km/h (1 Bft) 0 min 0,0 km/h (0 Bft)
21.07.2010 23:30 26,1 C 19,5 C 0,0 UV-I 0,0 C 55 % 91 % 0 % 1013,4 hPa 0,0 l/m 1,2 km/h (1 Bft) 0 min 0,0 km/h (0 Bft)
21.07.2010 23:32 26,1 C 19,5 C 0,0 UV-I 0,0 C 55 % 91 % 0 % 1013,4 hPa 0,0 l/m 1,6 km/h (1 Bft) 0 min 5,1 km/h (1 Bft)
21.07.2010 23:34 26,1 C 19,5 C 0,0 UV-I 0,0 C 55 % 91 % 0 % 1013,4 hPa 0,0 l/m 1,2 km/h (1 Bft) 0 min 5,1 km/h (1 Bft)
21.07.2010 23:38 26,1 C 19,5 C 0,0 UV-I 0,0 C 55 % 91 % 0 % 1013,4 hPa 0,0 l/m 1,2 km/h (1 Bft) 0 min 3,5 km/h (1 Bft)
21.07.2010 23:40 26,1 C 19,5 C 0,0 UV-I 0,0 C 55 % 91 % 0 % 1013,4 hPa 0,0 l/m 1,2 km/h (1 Bft) 0 min 4,5 km/h (1 Bft)
21.07.2010 23:42 26,1 C 19,5 C 0,0 UV-I 0,0 C 55 % 91 % 0 % 1013,4 hPa 0,0 l/m 1,2 km/h (1 Bft) 0 min 4,5 km/h (1 Bft)
21.07.2010 23:44 26,1 C 19,5 C 0,0 UV-I 0,0 C 55 % 91 % 0 % 1013,4 hPa 0,0 l/m 0,8 km/h (0 Bft) 0 min 0,0 km/h (0 Bft)
21.07.2010 23:48 26,1 C 19,4 C 0,0 UV-I 0,0 C 55 % 91 % 0 % 1013,2 hPa 0,0 l/m 0,8 km/h (0 Bft) 0 min 0,0 km/h (0 Bft)
21.07.2010 23:53 26,1 C 19,4 C 0,0 UV-I 0,0 C 55 % 91 % 0 % 1013,2 hPa 0,0 l/m 0,4 km/h (0 Bft) 0 min 0,0 km/h (0 Bft)
21.07.2010 23:56 26,1 C 19,4 C 0,0 UV-I 0,0 C 55 % 91 % 0 % 1013,2 hPa 0,0 l/m 0,8 km/h (0 Bft) 0 min 3,5 km/h (1 Bft)
21.07.2010 23:58 26,0 C 19,5 C 0,0 UV-I 0,0 C 55 % 91 % 0 % 1013,2 hPa 0,0 l/m 1,6 km/h (1 Bft) 0 min 7,7 km/h (2 Bft)
_ Min-Zeit 07:10 06:12 00:00 00:00 00:00 13:36 00:00 07:08 - 00:00 - 00:00
Minimum _ 25,2 C 18,6 C 0,0 UV-I 0,0 C 44 % 37 % 0 % 1009,1 hPa - 0,0 km/h (0 Bft) - 0,0 km/h (0 Bft)
_ Max-Zeit 14:06 13:40 10:52 11:42 23:00 23:04 08:28 23:08 20:32 16:34 08:26 16:30
Maximum _ 27,6 C 31,2 C 14,7 UV-I 7,0 C 55 % 91 % 100 % 1013,4 hPa 0,2 l/m 9,6 km/h
S (2 Bft)
2 min 21,2 km/h
S (4 Bft)
Durchschnitt _ 26,4 C 23,4 C 3,0 UV-I 1,3 C 48 % 61 % 26 % 1011,2 hPa #1,5 l/m 3,2 km/h (1 Bft) #5:10 h 5,5 km/h (1 Bft)
© 2012 W. Hausmann